ECMWFFLT2_925_spd_000.txt.gz
Wind_Speed
18 19 18 20 16 10 10 13 15 14 14 13 12 12 11 10 12 11 9 8 9 10 9 10 13 13 13 13 13 14 13 12 12 12 13 15 16 17 18 18 19 20 21 23 27 27 27 28 28 30 30 29 29 29 27 26 26 27 27 26 26 25 25
20 17 17 21 20 14 9 11 15 14 14 13 12 12 11 10 12 10 10 12 11 10 9 11 16 18 17 16 15 15 13 12 14 13 14 16 17 17 18 19 19 20 21 23 28 30 29 30 30 30 30 29 28 28 28 27 26 27 27 26 26 25 24
17 16 16 17 19 21 15 11 13 13 12 12 11 11 11 13 12 10 13 14 12 11 8 8 12 14 15 16 15 16 13 12 14 14 14 17 17 17 17 18 18 19 20 22 27 30 31 31 30 29 30 29 28 28 28 29 28 27 28 26 24 23 23
16 14 14 13 15 20 20 14 11 12 11 11 12 11 9 11 12 10 13 14 11 10 10 11 12 11 12 13 14 13 10 10 12 12 13 15 15 16 16 17 18 19 21 24 29 32 32 32 30 29 29 29 30 30 28 30 29 27 28 27 24 23 23
16 12 13 16 15 16 16 15 13 13 11 10 12 13 11 11 11 10 11 12 9 8 10 13 15 13 12 12 13 13 10 10 12 12 12 13 14 16 17 17 18 20 21 25 31 33 31 31 29 29 30 30 31 31 29 30 30 28 28 28 26 24 23
13 13 15 20 21 17 15 14 14 14 12 10 12 15 14 13 12 11 11 11 9 8 7 9 13 14 14 14 15 14 14 15 12 9 11 13 14 16 18 18 19 19 19 23 29 31 30 31 30 30 30 30 30 31 30 29 30 30 29 28 27 25 24
11 14 16 19 23 23 19 15 15 16 14 12 13 13 13 14 15 14 13 12 11 7 4 6 11 13 12 13 12 11 12 14 11 8 9 12 13 15 17 18 18 17 17 19 24 27 29 30 30 30 29 29 30 30 29 28 29 31 30 28 27 25 25
9 13 15 17 20 21 19 17 16 17 17 16 16 13 11 13 15 14 13 14 12 6 4 3 8 9 9 10 10 11 11 10 9 9 8 10 11 13 15 16 15 16 17 17 18 20 24 27 28 28 28 27 28 28 28 28 28 29 30 29 28 27 27
9 11 12 14 16 15 13 15 17 19 22 23 20 16 12 14 18 19 16 13 12 9 6 5 8 7 7 9 10 13 12 10 10 9 7 8 10 11 14 14 15 16 16 16 15 16 20 24 26 27 26 26 26 26 27 27 26 27 28 29 29 28 27
10 11 11 11 12 12 11 15 20 23 26 26 21 14 13 14 17 20 18 13 13 15 14 14 15 13 12 14 12 11 11 11 11 8 6 7 8 9 12 13 14 15 14 14 15 15 19 24 25 26 26 25 25 24 24 25 25 25 26 28 29 27 25
12 11 11 11 12 13 14 18 23 24 25 26 21 14 14 15 13 15 15 14 17 20 18 17 17 15 15 17 15 12 10 9 9 7 6 7 7 8 10 12 13 13 14 15 17 16 19 23 24 25 25 25 24 23 23 24 24 24 24 25 25 26 26
18 16 14 15 16 16 17 20 23 24 24 26 24 20 19 16 14 15 13 12 19 23 20 18 16 13 13 16 16 15 13 13 12 8 8 8 8 9 10 12 14 15 15 16 17 16 18 22 23 23 23 24 23 22 22 23 23 23 22 22 24 26 23
21 21 20 20 18 17 17 18 21 23 24 26 26 25 24 20 17 16 13 14 20 23 22 22 18 14 14 14 14 16 17 17 16 10 9 10 11 12 13 14 15 16 15 15 16 16 18 21 22 22 22 22 22 21 21 22 23 23 21 21 23 20 14
19 22 22 23 23 20 20 20 21 22 24 27 26 25 26 25 23 23 19 18 20 20 21 24 22 18 17 15 14 16 16 17 17 12 10 11 11 13 14 15 15 16 17 16 16 16 17 19 22 22 21 22 22 22 22 22 22 21 20 19 18 16 12
16 21 23 24 25 23 23 23 23 24 24 26 26 24 24 24 24 26 26 23 19 16 16 19 20 17 17 18 18 16 14 17 19 16 12 11 12 13 15 16 15 15 16 16 16 17 18 20 23 23 21 21 22 22 21 21 20 19 19 18 17 16 16
11 16 22 25 25 25 25 25 24 25 24 22 22 21 21 21 21 23 24 22 17 14 15 17 18 17 18 20 19 16 15 18 18 14 10 9 10 11 12 13 14 15 16 17 19 19 19 21 22 22 20 20 20 20 19 19 18 18 18 17 17 17 19
8 11 16 20 21 21 20 20 22 24 23 22 22 21 22 22 20 18 18 17 14 14 16 18 19 20 21 21 18 15 14 12 9 8 7 7 7 7 8 10 13 14 14 15 16 16 17 19 20 20 19 18 17 18 17 16 16 16 17 17 17 19 22
7 9 10 12 14 14 13 14 19 23 24 25 24 23 23 22 18 15 13 13 14 16 17 17 18 17 16 14 11 9 8 6 6 7 6 6 6 6 7 10 12 13 13 12 13 15 17 18 18 17 16 15 15 16 16 16 17 17 17 17 17 21 25
7 6 8 10 11 12 12 13 16 21 23 24 25 25 25 24 22 20 18 16 14 14 13 12 12 9 6 4 5 5 5 5 6 7 6 7 8 8 8 10 11 12 13 13 14 17 18 18 18 18 17 16 17 17 18 18 18 18 19 19 20 23 26
6 6 8 10 9 10 14 14 13 16 19 21 22 23 23 24 23 21 20 19 16 15 13 9 6 4 3 3 5 6 6 6 7 7 7 8 10 11 11 12 13 13 15 16 17 19 21 21 20 20 19 19 19 19 19 19 19 20 20 21 22 24 25
6 6 8 8 8 12 15 11 6 7 9 11 12 15 17 20 21 20 18 19 19 18 15 8 5 5 4 5 7 8 8 8 8 8 6 5 8 11 12 12 14 16 18 20 21 20 21 23 23 22 22 21 21 20 20 19 20 20 21 22 23 24 24
5 6 6 6 9 11 9 3 6 7 8 9 8 9 14 15 17 19 18 18 19 17 13 9 7 6 6 8 8 7 6 6 7 8 7 5 6 9 10 11 14 17 19 21 22 21 21 23 25 25 25 24 22 21 20 20 20 20 19 21 22 23 23
8 8 6 5 8 6 2 7 10 10 9 10 6 8 14 13 14 16 17 18 19 16 12 10 9 8 9 11 7 5 4 4 5 7 8 8 9 10 12 15 17 18 18 19 21 21 21 21 23 24 25 24 22 20 19 20 20 19 19 20 21 22 22
9 10 7 5 7 4 5 9 11 10 10 8 5 11 12 10 13 15 15 17 16 12 11 10 10 9 9 7 3 6 5 5 6 7 8 10 11 11 14 16 17 18 17 18 19 19 19 19 20 22 23 22 19 19 19 20 19 19 19 20 20 21 21
10 11 9 7 6 2 6 11 12 9 8 6 9 10 5 2 6 9 11 13 12 11 12 10 7 5 2 2 5 7 8 9 9 9 10 11 12 13 15 17 19 20 20 20 20 18 16 17 19 21 20 19 18 18 18 18 19 20 21 22 21 22 23
10 9 8 8 5 3 9 14 11 5 6 6 5 4 5 4 3 5 8 11 10 10 10 8 6 6 6 8 10 11 12 13 13 12 13 14 14 16 17 17 20 22 21 21 20 17 15 17 19 19 19 19 18 18 18 18 20 23 25 25 24 24 25
7 8 7 7 5 3 11 13 7 3 4 4 4 5 4 3 2 3 5 8 11 12 12 12 12 12 12 12 14 16 16 17 17 16 16 17 17 18 18 18 20 21 18 15 14 13 13 15 17 19 21 20 18 18 19 19 22 25 27 28 28 27 26
7 9 7 3 0 4 9 8 5 4 5 5 5 4 3 6 6 6 7 10 13 15 16 17 16 15 16 16 16 18 18 19 19 18 18 19 18 18 19 20 21 19 14 12 12 11 10 9 10 13 16 17 16 16 17 18 20 23 24 26 28 27 26
4 3 4 5 5 5 6 5 4 5 4 4 5 3 6 8 7 8 9 11 13 14 15 17 16 15 15 15 16 17 17 17 17 17 17 17 17 17 18 18 18 17 14 12 13 13 12 11 9 7 8 11 13 14 14 15 16 18 21 25 27 26 25
4 4 6 8 8 6 5 4 4 5 4 5 6 6 7 8 8 9 9 11 12 12 12 14 15 14 15 15 15 15 15 15 15 15 14 14 15 16 15 15 15 15 14 13 13 13 11 9 9 8 7 9 12 13 14 15 16 18 21 23 25 24 24
5 4 6 9 9 7 6 4 3 7 9 9 9 8 8 9 10 11 11 11 12 11 11 13 14 15 16 16 14 13 13 13 13 13 13 12 12 13 12 12 12 14 13 12 12 12 10 8 7 8 9 10 12 13 14 15 17 18 19 20 21 21 20
5 5 8 11 11 9 9 7 5 8 11 12 11 10 9 11 12 13 14 13 12 12 12 13 14 16 16 16 15 13 11 10 11 11 11 11 11 11 12 11 12 13 13 12 11 10 9 7 7 8 9 10 11 12 13 14 16 17 16 17 18 19 18
6 8 10 12 12 8 9 9 10 10 11 11 13 13 13 14 15 15 16 16 14 14 15 14 15 16 15 15 16 14 11 11 11 10 10 11 11 11 11 11 11 12 12 12 11 10 8 7 7 8 9 10 11 13 14 15 17 17 17 17 17 18 18
6 7 8 9 10 6 4 8 11 12 11 11 13 15 15 15 15 15 16 17 16 17 17 16 15 14 14 15 16 15 13 12 12 11 11 11 12 12 12 12 11 10 11 11 11 10 8 6 6 7 8 9 11 13 15 16 17 18 18 17 17 17 16
4 9 10 8 8 7 4 5 8 10 10 9 12 14 14 14 14 15 15 15 16 16 16 16 15 14 13 14 15 15 13 12 12 13 13 12 12 13 13 12 10 9 8 8 8 8 7 5 6 7 8 10 11 13 15 16 17 18 18 17 17 17 16
4 11 11 9 10 9 5 4 7 9 10 10 12 13 12 12 13 14 14 13 13 13 13 13 13 13 13 13 14 14 13 12 12 14 16 16 14 13 14 13 11 9 7 6 6 6 5 5 5 6 7 9 10 12 14 15 16 18 17 16 16 16 15
6 12 12 12 14 13 8 6 9 9 9 10 11 11 11 11 11 11 11 11 10 11 11 11 12 13 13 12 12 12 11 11 11 12 13 14 14 13 13 12 11 8 6 4 3 3 4 5 5 6 7 8 9 11 13 13 14 16 15 14 14 15 14

ECMWFFLT2_925_spd_003.txt.gz
Wind_Speed
21 20 20 21 18 12 11 13 16 16 16 16 12 12 14 14 13 11 11 11 11 12 13 13 14 16 16 16 17 18 18 19 18 13 9 13 15 16 17 19 21 23 22 23 28 30 32 34 34 35 35 34 34 32 31 32 31 30 30 30 29 28 27
20 18 18 22 22 17 11 12 16 17 18 17 12 11 12 12 13 11 13 17 14 12 11 11 17 20 16 15 18 18 18 19 17 12 9 12 15 16 18 20 20 21 22 23 27 31 33 35 35 35 36 35 34 33 32 32 32 31 30 30 29 28 27
18 17 16 18 21 24 19 13 15 16 16 15 12 11 12 12 13 10 15 19 14 12 10 9 15 20 18 19 19 17 16 17 15 13 14 15 15 14 15 18 19 20 22 23 27 31 33 35 34 34 35 35 34 34 32 32 32 32 30 29 28 27 27
16 14 13 13 16 22 23 18 15 13 13 13 12 12 11 12 13 11 14 15 11 12 10 11 15 18 19 20 18 16 16 18 17 16 15 15 14 12 14 16 19 21 23 26 30 33 34 34 34 33 35 35 34 34 33 32 31 31 31 30 28 27 27
15 12 13 16 16 17 18 18 16 14 12 12 14 15 13 12 12 10 12 12 10 10 10 12 16 16 16 18 17 15 15 18 18 14 13 12 12 11 13 15 19 22 23 25 31 33 32 33 33 34 35 35 34 33 33 33 32 31 31 31 28 27 27
14 14 16 20 20 17 16 16 17 16 13 13 15 15 13 14 14 11 11 11 10 9 10 12 15 13 12 15 17 16 18 21 18 13 14 13 14 14 15 15 18 21 21 22 27 30 30 31 33 34 34 34 34 34 33 34 33 31 31 30 29 27 27
13 17 18 20 21 21 19 17 18 18 16 14 13 12 13 15 15 14 14 13 9 8 10 11 13 14 14 15 14 14 16 17 13 11 13 15 18 17 16 15 18 19 19 20 22 26 29 30 31 33 33 33 34 35 33 33 34 33 30 29 28 27 27
11 16 17 18 21 21 19 16 18 19 19 18 15 12 13 14 15 15 14 13 11 10 9 6 8 11 12 12 12 13 14 13 13 14 10 10 15 14 15 17 18 17 17 17 18 20 23 25 29 32 32 33 33 34 33 33 33 33 31 29 28 28 27
10 13 13 15 18 18 14 15 19 21 24 27 21 14 12 12 17 20 15 11 12 11 7 5 8 11 11 15 16 17 16 13 14 13 5 9 9 10 12 16 17 17 17 15 14 15 18 23 28 30 31 32 32 33 33 33 32 32 32 31 30 30 29
11 12 11 11 14 14 12 16 22 23 26 31 24 14 13 13 16 19 15 11 12 12 11 11 11 12 11 15 17 16 15 12 12 11 3 5 6 7 10 13 14 15 13 12 13 13 17 24 28 28 30 32 32 31 33 33 31 30 31 31 31 31 30
12 11 11 11 12 14 15 19 24 24 26 29 23 14 14 14 13 14 13 14 16 16 16 16 16 15 12 11 12 12 11 12 13 10 4 1 4 6 10 11 12 13 12 12 14 13 17 25 29 29 31 32 31 30 31 32 30 29 30 31 32 31 29
17 15 14 15 15 16 19 21 24 25 25 27 23 18 18 18 16 15 14 15 19 20 17 16 17 17 15 13 14 13 11 12 12 9 6 5 7 8 10 12 13 14 13 13 15 15 18 25 29 30 31 32 32 31 31 32 30 30 31 32 33 32 30
21 21 18 17 17 17 20 20 22 23 24 27 26 23 24 22 18 17 15 16 21 23 22 21 18 16 17 18 18 16 13 15 14 9 10 13 13 12 12 13 14 14 13 14 15 16 18 22 27 29 30 30 30 30 31 32 31 31 32 32 32 31 30
22 24 22 21 21 20 20 21 21 22 23 26 26 25 26 25 23 22 21 22 24 23 22 24 21 18 17 16 16 16 15 18 17 14 15 15 16 15 14 13 13 13 14 15 15 16 17 19 24 27 28 29 30 31 31 31 31 30 29 29 30 31 32
17 22 23 24 24 22 22 22 22 23 24 25 26 25 25 24 24 25 25 24 22 18 20 24 23 21 20 17 16 17 16 17 16 16 17 16 12 13 13 11 11 13 14 15 16 17 18 21 25 27 27 28 30 30 30 31 31 30 28 28 28 29 30
13 16 19 23 24 23 24 23 23 26 24 22 22 21 22 22 23 24 24 21 16 15 18 22 22 23 25 24 22 18 15 15 16 15 14 13 14 13 9 8 10 13 15 16 18 20 21 24 27 28 27 28 29 29 29 30 30 30 29 28 28 26 25
12 16 19 19 18 18 19 19 22 25 24 22 22 21 23 23 21 19 18 16 15 15 16 19 22 25 26 25 23 20 16 16 16 16 14 13 16 13 8 9 11 14 16 16 19 20 21 24 29 29 29 29 29 29 28 28 28 29 28 28 28 28 28
11 17 18 16 15 15 14 16 20 24 25 25 24 23 24 23 20 18 17 17 18 18 17 20 23 23 21 19 19 18 17 15 15 18 18 16 15 12 7 8 11 13 15 15 17 20 22 25 28 29 29 28 28 28 28 27 27 27 27 27 28 29 30
9 11 13 14 15 13 12 13 17 22 25 26 26 26 26 25 24 24 23 21 20 19 20 22 22 21 20 19 19 19 20 19 17 19 18 14 12 10 10 11 13 14 15 16 17 20 24 26 27 27 27 27 28 28 27 26 26 26 27 28 28 28 29
9 9 11 13 11 10 11 12 14 17 20 23 23 22 23 24 25 26 24 22 21 21 20 19 19 21 23 21 18 17 19 19 17 19 18 14 12 11 11 12 13 14 16 18 18 21 24 26 27 27 28 28 28 27 27 26 27 27 28 29 28 28 27
9 9 11 11 10 12 13 9 6 5 8 11 10 10 14 17 19 22 24 23 23 22 19 16 17 19 21 19 15 14 14 14 12 14 16 16 15 13 12 12 13 14 17 19 20 22 25 27 27 27 27 27 27 27 27 26 27 27 27 27 28 27 27
9 10 10 10 12 13 10 5 3 3 5 7 7 6 10 14 18 20 22 23 24 23 21 21 20 18 15 13 10 11 14 15 12 11 12 14 15 13 11 12 13 14 17 19 21 24 25 26 27 27 27 28 28 27 27 27 27 27 27 27 29 29 28
10 10 10 10 11 7 3 4 4 2 5 7 6 7 11 12 16 19 19 21 24 23 21 21 20 16 12 11 10 13 17 17 14 10 10 12 13 12 12 13 14 16 18 20 22 24 24 24 25 25 26 27 27 26 27 27 27 26 27 27 27 27 25
12 12 10 9 8 3 4 3 2 2 4 5 4 10 8 7 11 16 18 20 21 22 21 19 17 15 12 10 10 12 14 13 10 9 10 11 12 11 12 14 15 17 18 19 20 22 25 25 25 26 26 25 25 25 26 27 26 25 25 24 23 23 23
14 14 11 9 7 5 8 5 2 2 1 5 8 8 3 9 14 15 16 19 20 21 20 16 14 13 11 9 8 6 7 8 8 8 9 10 10 11 11 13 15 17 17 18 19 20 23 25 26 27 26 24 23 24 25 25 24 24 24 23 23 23 23
13 12 11 11 8 4 7 6 3 1 5 7 5 3 5 8 12 14 15 17 19 19 18 15 12 8 7 9 11 9 8 7 7 8 9 9 10 11 11 13 16 16 16 18 19 19 21 24 25 26 26 24 22 22 22 23 23 24 25 24 23 23 22
11 11 11 12 8 4 5 6 6 4 4 3 1 5 6 7 9 11 12 14 16 17 18 18 15 10 9 10 11 11 10 8 7 8 9 9 10 10 12 14 17 18 16 17 19 21 22 24 25 25 24 22 20 19 20 21 23 24 24 23 23 22 21
11 12 11 5 2 6 6 4 4 3 0 2 2 3 5 6 6 7 7 10 13 15 16 13 8 6 9 9 8 9 10 8 8 8 8 9 10 12 14 16 18 19 18 18 20 23 23 23 24 24 23 20 18 18 19 21 23 24 24 23 23 22 21
6 3 2 4 7 7 6 4 4 4 3 3 2 1 3 4 4 5 5 6 7 5 4 2 2 1 6 9 11 11 10 11 11 11 11 11 12 13 15 17 20 21 20 19 20 20 20 20 21 21 21 19 18 18 19 21 22 23 22 23 23 23 23
6 8 7 8 8 8 9 9 8 7 5 4 3 2 3 4 6 7 8 8 6 3 6 6 6 5 6 9 11 11 12 14 15 13 13 12 13 14 16 18 20 22 21 20 20 19 19 19 19 18 19 20 20 20 20 21 23 23 22 21 20 21 22
6 5 7 9 10 10 11 11 11 11 9 7 7 6 6 6 5 6 8 11 13 7 9 9 9 10 10 10 11 12 13 15 16 16 15 14 14 14 16 17 19 20 19 17 17 17 17 16 17 17 18 19 19 20 22 23 25 26 25 23 19 19 21
5 6 10 13 14 14 13 11 10 11 11 11 11 10 9 8 5 4 7 4 8 8 11 13 13 14 14 12 12 12 12 12 13 14 14 14 14 15 17 18 18 18 17 16 16 16 15 14 14 14 15 15 17 19 21 24 25 25 24 23 22 21 21
7 10 12 14 13 13 14 14 12 12 12 13 14 13 12 12 11 10 12 9 5 7 12 15 16 17 16 15 15 15 12 11 12 12 13 13 14 15 16 18 17 17 16 16 16 15 15 14 14 14 14 15 17 18 19 21 23 23 22 23 23 22 21
7 9 12 11 10 9 10 12 14 13 13 16 18 16 14 13 13 13 13 12 11 12 15 16 17 17 16 16 16 16 13 12 13 13 12 13 13 14 16 17 17 17 16 15 16 16 15 14 15 15 15 16 17 17 18 18 19 21 22 22 21 21 20
4 9 12 10 10 10 9 11 13 13 14 17 18 17 16 16 15 14 13 13 13 15 17 18 17 17 16 16 16 15 14 13 13 13 13 12 12 14 15 15 15 15 15 15 15 15 14 14 14 15 15 16 16 16 16 15 17 19 20 19 19 19 18
3 11 13 11 13 14 11 12 14 14 14 16 16 16 16 16 17 15 14 14 14 14 15 16 17 17 16 15 15 14 13 13 13 13 14 14 13 13 15 15 14 14 13 12 13 13 12 13 14 14 14 15 15 16 16 16 17 19 19 18 19 19 18
7 13 12 12 16 15 11 12 15 15 14 14 14 13 14 15 15 15 14 14 14 14 15 14 16 17 16 15 14 13 12 12 13 13 12 12 12 12 13 13 13 12 11 10 10 10 11 11 12 14 14 14 14 16 17 18 19 19 19 19 19 20 21

ECMWFFLT2_925_spd_006.txt.gz
Wind_Speed
20 19 17 18 15 11 9 12 15 15 16 15 10 11 13 13 11 9 8 9 9 10 9 10 12 14 16 16 17 18 16 18 17 15 16 18 18 17 16 16 17 18 18 18 22 28 29 29 33 35 35 34 33 32 33 34 34 34 35 34 33 33 32
21 19 17 20 19 15 10 11 15 15 17 16 10 8 10 12 11 8 11 14 12 9 8 11 16 17 15 16 17 18 16 19 19 16 15 20 21 18 17 18 18 18 18 17 22 30 32 32 33 35 35 34 34 33 33 35 35 35 35 34 33 33 33
19 18 16 17 20 23 19 13 12 12 13 13 9 7 10 12 11 8 13 15 12 11 9 10 16 17 16 17 16 16 17 17 19 17 16 22 22 18 18 17 15 16 17 17 22 29 33 33 33 34 35 35 34 33 33 34 35 35 34 33 33 33 33
17 16 14 13 15 21 22 17 13 11 11 11 10 9 10 10 9 9 13 13 10 10 10 12 15 15 18 17 12 13 16 15 15 13 14 21 21 18 17 16 14 16 18 21 26 30 33 33 31 33 35 36 35 34 33 33 34 34 34 34 34 33 33
16 12 12 15 13 14 16 15 15 13 10 9 10 11 10 10 9 9 11 11 9 8 9 14 14 11 13 13 8 9 14 16 16 12 10 19 21 18 17 16 16 18 18 20 25 28 29 29 30 32 34 36 37 36 34 34 34 35 35 34 34 34 33
14 13 15 18 17 15 14 14 15 15 12 10 11 11 11 11 10 9 10 9 9 8 8 10 11 9 11 13 13 12 14 17 17 13 13 17 19 18 18 17 17 18 17 17 20 23 26 27 29 33 34 35 36 36 35 35 35 35 36 35 35 35 34
12 16 19 21 22 20 17 15 16 16 14 12 11 10 11 12 13 12 11 10 8 8 8 8 9 9 10 15 15 13 14 17 16 15 14 15 19 19 19 18 17 16 15 15 16 19 23 26 28 31 34 34 36 37 36 36 36 36 36 36 35 36 35
11 15 19 20 22 20 16 15 16 17 17 17 14 11 9 11 14 15 12 10 9 8 7 8 7 7 9 13 13 12 13 12 14 15 12 11 17 18 17 16 14 12 12 13 14 15 18 23 27 30 33 34 35 36 37 36 37 37 37 36 35 36 36
10 12 14 16 18 16 12 13 16 18 22 23 19 13 9 9 14 16 12 9 10 9 7 6 7 9 13 13 12 12 11 8 11 11 8 11 13 12 14 13 11 11 12 13 14 13 14 20 26 29 32 33 34 36 37 37 36 37 37 36 35 36 36
12 11 11 11 13 12 11 14 20 21 24 26 20 13 10 9 11 14 13 9 8 11 11 9 10 11 11 11 12 12 10 8 7 7 10 13 13 12 13 12 11 12 12 13 15 14 13 18 24 27 30 32 33 34 36 37 36 37 37 36 36 36 36
12 11 10 10 13 14 15 19 23 22 23 25 19 13 12 11 8 9 11 11 8 9 13 13 13 11 8 7 9 9 6 6 7 11 12 11 11 12 13 12 12 12 11 12 14 14 14 19 25 27 29 32 33 33 35 36 36 37 36 36 36 36 37
17 15 14 16 17 18 19 21 24 23 23 24 21 16 16 14 10 9 11 11 10 10 12 12 10 9 6 3 7 9 6 4 6 9 13 13 13 13 13 13 14 13 12 12 14 14 16 21 26 27 29 32 32 31 34 35 36 38 37 36 37 38 38
24 22 19 20 18 17 19 21 23 24 24 25 23 20 20 17 12 11 10 11 11 13 15 15 10 7 8 8 8 11 10 8 9 9 10 14 16 15 14 14 15 15 14 13 13 14 15 18 24 26 27 31 31 30 33 35 36 38 38 37 38 39 38
24 26 24 23 21 18 20 21 21 23 23 25 25 23 24 22 17 17 15 12 14 14 15 18 15 9 9 11 11 12 14 11 8 8 8 11 14 13 12 13 13 13 14 13 13 14 15 16 21 24 26 30 31 30 33 35 35 36 38 38 38 39 39
18 24 25 26 24 21 21 20 20 20 21 24 24 22 21 19 17 20 22 17 13 11 11 16 15 10 9 10 10 12 13 13 11 10 9 10 11 9 11 12 12 12 12 12 12 13 15 17 22 26 27 30 32 32 33 36 35 34 36 39 39 39 40
13 19 23 26 26 23 22 21 22 23 21 20 19 19 19 17 15 17 20 17 11 8 10 14 16 15 13 11 12 11 9 10 13 13 11 10 9 7 12 12 12 13 14 13 13 13 15 17 22 27 28 28 31 33 34 35 36 34 34 38 40 40 39
11 16 20 20 20 19 18 18 21 22 20 19 19 18 18 18 17 14 12 12 9 7 10 14 17 18 17 15 14 14 11 9 11 12 11 12 12 9 12 11 10 13 14 14 14 14 15 18 24 29 30 29 30 34 35 34 36 34 32 36 40 38 38
11 15 16 14 14 15 13 13 17 20 21 22 21 19 17 19 19 15 13 14 12 9 10 12 14 14 12 12 14 15 14 11 10 10 10 13 14 12 13 13 13 12 12 12 13 15 18 23 27 30 31 31 31 34 33 32 34 34 31 34 39 38 38
10 11 13 13 13 12 10 10 14 18 21 22 21 20 19 18 18 17 17 16 14 14 14 14 12 9 9 10 9 11 13 13 13 11 9 11 13 11 8 11 14 13 12 12 12 15 20 25 26 27 28 30 31 32 32 31 33 35 32 32 36 38 37
9 9 12 12 9 7 9 13 13 13 16 18 18 18 18 18 18 14 9 8 8 9 12 14 13 10 12 14 10 8 10 13 14 16 16 16 15 12 8 8 11 13 14 15 15 18 21 23 24 25 28 31 32 33 33 32 32 34 31 28 32 35 33
9 10 11 9 8 8 11 14 13 9 8 10 10 11 12 13 13 9 6 8 11 12 10 11 13 13 13 13 11 15 19 18 17 18 21 20 17 14 12 10 11 14 17 19 19 20 21 22 24 27 29 31 31 32 33 31 30 32 28 24 30 32 28
9 10 10 9 10 11 10 11 11 6 3 1 2 3 6 6 8 8 7 7 8 11 14 15 11 9 12 10 9 15 22 23 22 22 21 20 17 13 12 11 12 15 19 21 21 22 22 23 26 27 29 31 30 28 30 30 28 29 24 20 26 28 24
8 11 11 10 10 8 7 10 11 8 4 3 5 3 6 4 5 7 7 8 7 8 10 13 12 8 8 9 8 11 16 20 23 24 21 19 18 14 13 14 11 14 19 21 20 21 22 22 26 28 29 30 28 26 28 28 28 27 22 20 24 25 23
7 9 9 8 7 3 3 7 9 6 4 4 1 7 5 3 7 9 9 8 9 9 9 9 9 7 6 8 10 11 15 18 17 16 13 11 14 15 15 20 15 12 19 18 16 17 19 22 26 29 29 28 25 24 25 26 27 26 24 25 28 28 25
8 8 7 7 6 3 5 7 6 5 3 3 6 8 2 5 7 8 9 9 9 10 10 8 7 8 8 11 15 16 20 19 8 3 6 8 6 8 11 16 14 11 17 16 15 18 21 24 25 27 27 25 22 22 23 23 25 26 26 29 31 30 27
9 9 8 8 6 3 4 6 6 7 5 7 5 2 3 5 7 8 9 10 12 12 11 9 9 12 16 18 18 19 22 16 4 7 7 8 10 7 7 11 7 10 14 13 16 19 21 23 24 25 25 21 19 21 20 20 23 25 28 31 31 30 28
8 9 9 9 7 5 8 6 7 8 5 2 2 4 5 6 8 9 8 11 13 12 11 12 13 16 19 20 19 19 20 12 6 12 7 3 3 6 9 9 1 9 10 10 14 17 20 23 23 24 23 19 18 19 18 20 25 28 30 32 32 30 28
8 9 8 4 5 5 12 8 6 4 3 4 5 5 6 7 9 9 8 10 12 11 11 13 15 16 17 19 19 17 15 11 6 8 6 3 3 1 7 7 4 8 7 8 12 15 19 23 22 22 23 21 19 18 18 24 29 31 32 32 31 29 28
5 3 1 2 4 1 9 6 2 5 8 9 8 9 9 8 9 9 8 8 10 11 12 13 14 15 14 15 16 15 16 17 14 10 9 9 8 6 6 7 9 11 8 8 11 12 14 17 20 22 24 24 21 18 22 28 30 30 30 30 29 29 29
2 5 4 4 4 4 6 6 4 6 10 11 10 11 10 9 10 9 9 10 11 12 13 12 12 13 14 14 13 13 14 15 14 12 12 12 11 10 9 10 15 15 10 8 7 9 15 18 21 24 26 26 25 24 27 30 29 28 29 28 27 27 26
2 3 5 7 10 10 7 5 5 8 11 12 11 10 9 10 11 11 12 13 13 14 15 14 13 13 15 15 13 12 12 12 13 13 12 11 11 11 10 11 6 1 3 5 5 7 12 17 20 20 22 26 29 29 29 28 28 29 29 28 27 26 25
5 2 8 14 17 16 14 10 7 9 12 13 13 12 12 13 14 14 14 14 13 14 15 14 13 14 15 14 14 14 13 11 9 10 10 7 6 5 3 5 7 11 8 7 8 6 8 15 19 19 20 24 27 29 28 26 27 28 28 27 26 25 25
4 3 10 15 17 15 15 15 14 13 13 14 15 15 15 15 15 15 16 16 14 14 14 12 12 13 12 13 14 15 14 13 11 8 6 4 4 7 5 2 9 14 12 10 11 9 8 13 18 20 22 23 25 26 25 25 27 27 26 25 24 22 22
3 4 4 6 10 11 10 13 16 16 15 16 17 17 16 16 15 15 16 16 15 15 14 12 10 9 9 10 11 11 10 10 10 8 2 3 3 6 11 12 16 20 18 13 13 12 10 12 18 20 21 22 22 23 23 24 26 27 25 23 22 21 20
5 5 4 2 8 11 10 11 14 14 14 15 17 17 16 16 15 15 15 15 15 15 14 13 12 10 9 9 10 9 8 7 7 8 4 4 6 8 12 14 14 16 17 15 14 13 12 13 17 18 19 20 21 22 23 24 25 26 24 22 20 20 20
8 5 3 4 11 14 12 11 13 13 12 13 15 16 16 15 15 15 15 14 13 12 12 13 14 13 12 11 10 8 7 7 8 9 9 10 11 12 14 15 14 15 16 16 15 14 13 14 16 16 17 19 19 20 22 22 22 24 23 21 20 20 20
3 4 8 9 14 15 12 11 13 12 12 12 13 14 15 14 13 14 13 12 12 12 11 11 13 14 14 12 10 8 8 8 10 10 9 12 15 14 15 16 15 15 16 15 15 14 14 15 15 16 16 15 15 17 20 21 20 21 21 20 20 20 20

ECMWFFLT2_925_spd_009.txt.gz
Wind_Speed
15 12 12 14 10 5 5 9 12 8 6 6 3 4 4 3 5 6 5 6 4 3 5 5 8 13 16 16 16 17 18 19 18 14 14 15 15 15 14 14 15 16 16 18 23 28 29 30 33 36 37 37 37 37 38 39 39 39 39 39 38 37 36
18 15 11 15 15 9 4 6 8 3 4 7 4 4 5 4 6 5 6 8 5 3 4 6 8 10 14 15 14 15 15 17 19 17 16 17 18 17 16 16 16 16 16 18 22 28 31 33 35 37 38 37 37 37 39 40 39 39 40 39 39 38 37
16 15 12 12 14 14 10 5 5 5 7 9 6 4 6 6 7 4 6 8 6 6 5 7 12 10 12 14 14 14 13 15 19 20 20 20 19 17 16 17 16 15 16 17 21 27 31 34 35 36 38 37 37 37 38 40 41 41 41 40 39 39 38
13 12 10 9 9 12 12 9 7 7 6 6 6 5 4 5 6 5 6 7 5 6 5 8 12 12 12 13 15 16 15 15 18 19 19 19 18 17 16 17 17 17 18 19 24 29 31 33 34 34 36 37 36 36 37 39 39 40 40 40 40 39 39
11 10 9 10 9 10 11 10 10 8 4 3 5 6 6 6 5 4 5 6 5 5 6 7 9 9 12 12 13 15 15 15 19 20 20 19 18 17 18 17 17 18 19 19 25 30 31 31 32 33 36 37 37 36 36 37 38 39 40 40 40 39 38
8 8 11 14 14 12 11 10 11 10 5 4 5 7 8 8 6 4 4 5 6 5 5 8 9 8 10 11 12 13 13 14 17 20 20 19 18 17 18 18 17 18 18 17 21 26 27 28 30 33 36 37 36 36 36 37 38 39 40 40 40 39 39
8 8 12 18 19 17 13 11 11 10 7 6 6 6 5 6 7 6 4 5 6 6 7 8 9 9 8 10 12 13 13 12 14 17 18 17 18 18 19 19 18 17 17 16 18 23 27 29 31 33 35 36 37 37 37 36 37 38 39 39 40 39 39
9 10 9 16 20 17 13 11 11 11 10 9 7 5 4 5 6 6 6 7 7 6 8 7 7 9 8 8 12 14 14 11 11 14 16 16 18 19 19 19 18 16 15 14 15 17 21 26 29 33 35 36 37 37 37 37 37 39 39 38 39 39 40
6 9 7 10 17 15 9 9 11 14 15 13 10 7 4 5 9 8 6 6 7 6 7 7 7 7 6 6 8 11 12 11 10 10 13 16 18 19 20 19 17 15 13 13 14 13 16 22 26 30 34 35 36 37 38 37 37 38 38 38 38 40 40
9 10 7 5 9 11 8 9 12 15 18 17 12 7 5 6 9 9 7 5 6 5 10 14 15 11 7 5 3 4 7 9 10 9 12 16 17 18 19 17 15 14 13 13 14 13 15 21 25 28 32 34 35 37 38 37 37 37 38 37 38 40 41
9 9 8 4 4 9 12 15 16 15 16 18 13 7 7 7 4 6 8 7 6 7 9 16 18 14 9 6 1 3 1 4 5 9 14 16 17 16 16 15 14 14 14 15 16 15 16 22 26 28 31 33 34 35 37 38 37 37 37 37 38 39 41
13 9 8 8 8 9 14 17 18 17 15 15 14 12 12 7 4 6 9 7 8 11 9 9 12 10 8 8 5 6 6 3 3 6 14 18 17 15 14 14 16 16 16 15 16 15 16 21 24 26 29 32 34 35 36 37 36 36 37 38 38 39 40
18 15 12 12 13 12 13 16 18 19 19 17 15 15 14 9 7 9 8 6 7 11 11 10 9 6 6 9 9 8 8 7 6 7 12 14 15 14 13 14 16 16 16 15 15 14 15 18 21 23 25 29 31 33 35 37 37 37 38 38 38 38 39
18 20 18 16 15 14 13 15 17 17 19 21 20 16 12 11 10 11 9 9 9 8 9 11 8 7 6 5 6 8 8 10 9 9 11 13 14 14 14 15 16 16 16 15 14 14 14 15 18 22 25 29 32 34 36 38 38 38 39 40 39 39 39
14 19 20 19 18 17 14 12 16 18 18 20 20 17 12 9 8 9 10 9 8 7 7 8 6 5 6 3 3 6 7 9 12 10 11 12 13 12 12 12 13 13 14 14 14 14 13 15 19 23 26 30 33 34 36 38 38 39 40 40 41 40 41
6 13 19 21 20 18 17 15 15 18 16 14 13 14 14 12 10 8 8 9 8 7 6 5 6 4 6 6 6 6 5 6 11 12 12 12 14 15 15 14 13 14 15 15 15 15 15 17 22 25 28 30 32 33 36 39 40 40 40 41 41 42 42
4 7 15 22 19 15 16 17 13 10 10 10 11 11 13 16 13 7 5 6 6 5 6 6 7 7 6 7 6 6 5 4 6 10 12 12 11 13 14 15 16 16 15 15 16 16 17 20 26 30 32 31 32 36 39 41 40 39 39 40 41 41 42
5 7 9 12 14 13 12 11 9 9 9 10 10 9 9 11 11 9 8 8 6 4 5 7 8 9 8 8 8 7 7 6 5 6 9 10 10 12 15 16 17 16 14 13 15 18 22 26 31 35 35 35 38 40 41 40 40 40 40 39 39 40 42
4 4 4 5 9 9 6 6 8 12 13 11 9 9 7 4 2 5 9 10 6 2 1 3 3 4 7 6 7 8 8 8 9 9 9 9 11 14 16 16 16 17 17 15 15 17 23 29 31 33 34 36 37 38 38 38 39 41 40 39 39 41 43
4 4 4 5 5 2 3 3 7 7 7 7 5 5 5 3 7 5 1 1 2 6 7 5 4 3 3 2 2 5 6 7 9 10 10 9 9 11 14 15 15 16 17 17 18 21 25 29 29 30 33 36 35 34 36 37 39 41 41 38 38 40 43
5 5 4 3 3 3 4 4 3 3 3 2 3 2 2 4 7 8 6 7 8 8 8 7 7 7 6 6 5 5 4 3 4 6 7 7 7 8 10 12 15 17 19 21 23 25 26 27 28 30 33 35 34 32 34 36 37 39 39 37 37 40 43
1 3 3 3 4 5 5 3 1 3 7 9 7 5 3 5 6 8 9 9 9 8 7 8 8 8 8 5 6 7 9 10 8 7 7 7 9 9 9 10 13 17 21 24 25 26 26 26 30 33 34 35 33 31 32 35 36 36 36 37 39 41 43
2 4 2 5 4 3 3 3 2 1 5 9 7 4 3 5 6 8 11 11 9 8 7 8 8 8 5 4 6 8 10 10 8 8 9 10 9 8 8 10 12 16 24 28 29 29 27 27 31 34 35 35 33 30 32 35 34 33 35 38 41 43 45
2 5 1 3 2 1 2 0 1 2 4 9 5 1 2 4 6 9 11 11 9 7 7 8 8 7 3 3 7 9 11 9 7 5 4 4 4 4 2 4 11 19 25 25 23 23 25 30 35 38 37 34 31 29 33 35 33 34 38 43 46 46 44
4 4 2 2 1 1 3 6 7 5 5 8 4 4 2 3 7 8 9 9 8 7 8 7 5 3 2 4 6 9 11 11 10 8 6 6 6 8 10 8 3 16 23 20 18 21 26 30 33 33 32 29 27 31 32 29 31 39 44 45 44 42 39
4 4 2 1 3 4 3 8 10 8 5 4 2 2 3 5 8 9 9 9 7 6 8 7 5 3 3 6 8 11 12 11 12 13 11 10 10 11 16 19 12 4 14 17 19 24 30 35 36 35 32 27 25 28 28 28 36 44 43 40 38 36 36
3 3 3 2 2 6 4 6 6 5 2 3 2 5 6 6 8 8 8 8 6 5 7 7 6 6 7 9 10 11 12 13 13 13 13 12 11 10 11 15 16 11 4 1 0 1 4 12 18 22 25 26 26 23 22 29 38 37 32 33 34 33 33
3 2 2 1 5 9 5 3 2 1 3 3 4 6 5 5 6 7 7 7 7 6 8 8 8 9 10 11 11 11 12 13 12 12 13 14 14 12 11 12 14 14 10 8 11 18 20 16 11 9 9 9 14 21 26 32 34 29 29 32 32 32 33
1 3 4 6 11 13 8 4 7 6 7 8 9 9 7 5 5 5 6 6 7 8 9 10 10 10 10 10 11 11 10 10 10 10 11 11 11 12 13 14 15 12 11 10 12 16 21 22 17 15 20 22 18 14 16 22 21 20 23 23 23 25 27
4 4 2 6 12 16 13 2 9 11 9 9 10 10 9 7 6 6 7 7 8 9 9 11 10 9 8 9 10 9 9 9 9 9 9 9 10 10 11 13 15 11 11 12 11 13 18 24 23 20 23 27 24 19 8 21 31 31 30 27 24 22 21
4 3 4 6 9 15 16 6 8 13 12 11 10 9 8 8 7 8 9 9 9 9 10 11 10 8 9 9 8 8 8 8 9 9 9 9 9 9 9 11 12 11 9 9 10 11 14 19 24 26 28 30 26 20 17 23 35 41 41 35 28 23 21
2 4 5 5 5 11 16 10 3 11 12 13 13 11 9 10 10 11 11 10 9 9 9 9 9 10 10 10 8 8 7 7 7 7 7 7 8 9 11 13 13 10 7 7 9 11 13 17 23 28 29 29 25 21 20 21 26 34 39 39 34 30 26
4 4 5 6 6 8 13 14 8 8 11 13 14 12 12 13 12 12 12 11 10 10 10 9 9 10 9 8 8 8 7 7 7 7 6 5 6 8 11 14 15 13 9 8 11 13 14 17 21 25 27 26 22 19 19 19 18 21 26 31 33 33 31
2 1 4 6 5 4 7 12 11 10 10 12 14 13 13 13 11 10 12 11 11 12 11 10 9 9 8 7 7 7 6 6 7 8 7 4 4 7 9 11 13 13 11 9 10 12 16 18 20 23 26 26 21 14 12 14 17 20 22 22 24 28 29
4 5 5 5 3 3 5 9 10 9 7 10 13 13 12 12 10 10 10 10 10 11 10 10 10 9 8 8 8 8 7 7 7 8 9 8 6 8 9 9 8 10 11 12 10 7 12 16 18 21 25 26 23 19 18 18 21 25 25 21 20 23 25
6 7 6 3 2 1 4 7 8 8 6 7 11 12 11 11 10 10 11 10 10 9 9 9 9 9 9 9 9 8 9 9 8 9 11 13 12 10 11 10 9 8 11 12 12 9 6 10 12 16 23 27 26 26 27 27 26 26 26 23 21 21 22
7 7 4 2 2 3 1 4 6 6 6 6 9 10 10 10 10 10 10 10 9 8 8 8 8 9 10 9 9 9 8 9 11 12 12 13 12 10 11 12 12 11 13 14 11 7 3 6 10 16 23 27 28 28 29 28 25 24 23 22 22 22 24

ECMWFFLT2_925_spd_012.txt.gz
Wind_Speed
13 13 10 10 10 6 6 7 9 7 8 8 6 5 3 1 4 5 3 3 4 3 5 5 8 13 16 18 18 18 17 17 16 14 14 15 16 18 18 18 19 21 21 22 27 31 32 34 37 39 42 43 43 42 41 42 42 42 43 43 43 42 42
15 14 11 11 11 8 6 7 9 5 5 7 5 3 3 4 6 4 3 7 5 3 6 5 5 9 12 14 16 17 17 16 16 15 15 16 17 18 19 20 20 21 20 21 25 31 34 38 40 42 44 44 43 43 42 43 42 42 43 43 43 42 42
13 11 10 10 10 10 8 6 8 6 5 7 5 4 6 7 7 5 4 6 6 6 6 4 7 10 12 13 14 15 16 16 16 16 16 17 17 16 17 19 18 18 19 20 24 30 35 39 42 43 43 41 41 41 42 44 45 45 46 44 43 42 43
10 8 8 9 9 10 8 5 6 6 5 7 6 4 4 5 6 6 4 3 5 7 6 6 9 11 13 15 14 15 16 18 17 16 16 16 16 15 16 17 17 18 20 21 27 33 35 38 39 38 38 38 39 40 41 42 43 44 45 44 43 43 43
8 7 7 11 11 9 9 8 7 6 3 3 5 5 4 5 4 4 4 5 6 6 5 9 11 11 13 15 16 16 17 19 19 18 17 17 17 17 17 17 17 19 20 21 28 34 34 35 35 35 36 38 39 39 40 42 42 42 43 43 44 44 44
8 7 7 13 15 12 10 9 9 9 5 4 5 7 5 4 5 5 5 8 8 5 5 8 10 10 10 13 16 16 17 21 21 19 19 19 18 18 18 18 18 19 19 19 23 28 30 30 32 34 36 37 37 38 39 41 42 42 44 44 45 45 44
8 8 7 10 16 17 13 11 9 8 5 5 6 7 4 4 6 4 4 8 8 5 6 8 9 10 9 9 13 15 16 19 19 19 20 20 19 19 19 19 18 18 18 18 20 24 27 29 31 33 35 36 37 39 40 40 41 43 44 44 45 45 44
8 11 10 7 10 15 13 11 10 9 9 8 6 5 5 5 6 4 4 8 5 2 6 7 7 9 7 6 10 13 13 14 16 19 19 17 18 20 20 19 17 17 17 16 16 18 20 25 29 32 34 35 37 38 39 40 42 43 43 43 44 44 44
7 10 10 7 7 9 9 10 13 14 15 13 6 4 4 4 6 7 6 8 4 2 5 8 9 12 8 5 7 11 12 12 14 17 17 17 19 20 19 18 16 16 16 14 14 14 16 22 27 30 33 34 35 37 38 39 40 40 41 42 43 43 43
10 10 10 8 6 7 7 10 17 19 18 17 10 5 5 6 5 6 7 7 5 4 5 9 12 14 13 10 6 6 9 11 12 14 16 17 18 17 18 18 17 16 14 14 16 15 16 22 26 29 32 34 35 36 38 38 37 38 40 41 42 42 42
13 11 10 7 6 9 11 11 16 19 20 19 13 7 7 6 4 5 7 5 4 6 7 9 13 15 15 12 7 6 8 8 9 10 13 15 16 16 17 17 15 15 14 15 17 16 17 22 27 29 32 34 35 35 36 37 37 37 39 39 40 40 41
17 15 13 10 9 10 14 15 14 17 20 20 16 13 9 8 7 9 8 7 6 8 7 9 11 13 12 7 6 8 8 8 9 8 9 12 14 16 16 16 16 16 15 16 17 16 17 21 26 29 31 34 35 35 36 36 36 37 38 39 39 40 40
18 19 17 16 13 9 11 16 17 17 19 21 20 17 12 11 9 13 8 9 9 7 7 9 10 10 9 6 8 8 5 6 9 10 11 12 13 15 16 16 16 16 16 16 17 17 17 20 23 26 28 31 33 34 35 37 37 39 40 40 40 40 40
15 19 21 20 18 13 10 12 15 17 19 22 22 19 15 13 13 11 8 10 11 7 8 11 9 9 9 5 6 6 4 5 8 10 12 14 15 16 15 16 16 17 18 18 17 17 16 17 20 23 25 28 31 33 34 36 38 40 41 40 40 39 41
12 15 21 21 20 18 14 11 13 15 17 19 20 19 15 12 11 8 9 9 10 6 6 9 9 8 6 5 6 8 8 7 7 9 11 12 13 13 12 13 14 15 16 15 15 17 17 17 21 25 27 30 32 33 34 36 38 40 41 41 40 41 43
8 10 15 22 21 17 15 14 14 15 15 15 14 13 11 11 9 7 7 7 7 7 6 8 10 8 6 7 8 8 7 7 6 8 10 11 12 12 11 10 10 10 11 12 13 15 16 18 23 26 27 29 30 31 34 37 40 40 40 40 40 42 43
8 11 13 16 18 14 13 15 13 12 11 13 14 13 12 12 9 8 8 8 7 8 8 9 11 10 8 8 6 4 5 7 8 9 9 10 11 12 13 13 12 12 11 12 14 15 15 19 25 30 31 31 31 35 39 41 40 39 39 40 41 41 41
9 14 16 10 14 15 13 10 11 13 11 11 12 11 11 12 10 6 6 6 6 8 9 10 11 9 6 4 2 5 2 2 5 7 9 11 13 13 13 14 14 14 13 13 15 18 22 27 33 36 37 37 38 41 41 40 39 38 39 39 39 40 39
8 11 9 5 11 14 9 6 10 13 13 11 8 1 3 4 5 2 4 3 1 3 6 9 10 7 6 8 10 10 8 5 2 2 4 5 7 10 12 13 13 12 12 13 13 16 24 30 33 33 34 35 36 36 36 36 37 38 39 38 38 38 38
6 6 3 5 8 5 1 5 9 8 9 11 9 6 8 8 4 2 7 7 4 3 1 3 7 9 9 10 9 8 8 7 5 3 2 4 5 7 10 13 15 15 14 14 14 17 23 28 30 30 33 35 34 33 34 35 36 38 38 37 37 37 36
4 4 4 4 5 3 1 3 6 5 7 9 9 5 3 6 6 1 6 8 6 5 3 3 3 5 8 9 8 9 10 8 5 3 2 5 6 7 8 10 13 18 21 22 22 24 25 26 27 30 33 35 34 33 34 34 35 37 36 35 35 36 36
2 3 5 3 4 5 2 6 5 1 7 11 12 8 1 5 7 5 2 6 5 5 5 3 4 2 8 6 5 8 10 9 7 6 4 5 6 5 6 9 10 13 19 25 29 32 30 28 32 34 35 35 33 30 31 32 34 34 33 34 35 35 37
3 2 4 4 3 2 6 13 14 9 3 11 14 9 2 4 6 6 2 6 4 3 6 6 5 5 5 0 5 6 8 7 6 6 6 7 8 8 6 5 7 12 17 21 24 25 23 25 31 33 31 30 28 26 28 32 32 31 32 35 37 37 39
3 3 3 3 2 2 10 16 17 16 8 5 11 6 4 3 4 4 2 7 4 2 5 7 8 7 4 4 5 6 7 6 5 6 6 6 6 7 9 12 12 11 17 18 16 16 19 25 32 34 32 29 25 26 29 30 29 30 34 39 42 44 43
4 4 4 3 1 2 11 17 17 17 10 3 7 5 6 3 1 2 4 7 5 4 6 7 6 4 3 3 1 5 7 7 7 6 5 4 5 5 7 12 16 12 10 12 12 12 13 18 23 26 30 30 29 31 32 29 31 38 43 45 46 45 43
3 3 3 3 1 2 14 22 19 12 5 3 5 4 3 4 3 3 6 6 6 7 9 7 6 5 4 4 3 4 6 7 7 9 9 8 8 10 10 13 17 14 6 2 1 1 2 1 5 10 16 19 20 23 23 23 30 37 40 42 45 44 41
1 2 3 2 1 4 17 21 15 9 6 0 3 5 4 4 5 5 6 6 6 7 8 7 6 6 5 5 4 4 6 7 7 9 10 9 9 10 11 13 15 12 8 8 10 10 10 7 5 4 8 9 8 8 7 10 17 21 22 27 32 33 33
1 0 1 1 2 8 13 11 6 6 7 4 3 6 5 4 5 5 5 6 6 6 7 7 7 6 6 6 6 6 7 7 8 8 9 9 9 9 8 11 13 10 6 6 8 11 12 12 11 9 9 9 7 5 3 6 13 16 18 21 24 24 25
1 1 2 3 4 6 8 6 5 7 10 9 5 4 7 5 3 3 5 5 5 5 7 8 7 7 7 7 7 8 7 7 7 8 8 9 9 9 9 11 13 11 7 6 8 9 10 11 13 13 13 14 13 9 6 5 10 15 18 20 22 22 23
1 2 3 4 4 5 6 6 7 8 10 10 7 4 6 6 4 4 6 6 5 4 6 8 7 5 5 6 7 7 7 7 7 7 7 7 8 8 8 11 13 11 9 8 9 10 10 9 10 12 14 15 14 10 8 7 6 10 16 21 23 24 24
1 2 1 4 4 5 6 8 9 11 11 10 9 7 4 5 6 7 6 7 7 5 6 8 8 6 5 6 6 6 6 7 8 7 7 7 8 8 9 10 10 9 8 7 7 8 8 8 8 9 11 14 17 17 14 10 9 13 18 23 26 29 31
1 1 2 5 4 2 7 9 8 9 10 10 10 9 7 5 6 8 7 6 7 6 6 7 8 7 6 6 6 5 6 6 6 6 6 6 7 8 11 12 10 8 6 5 5 5 6 8 10 12 13 13 15 17 18 21 24 25 24 22 21 21 25
1 1 4 6 5 4 9 11 8 8 8 8 10 10 9 9 7 7 9 8 6 7 7 6 7 9 7 6 6 6 6 6 6 6 5 5 6 7 9 11 11 8 5 4 5 6 7 8 11 14 16 16 18 21 24 28 31 30 26 24 22 18 14
0 2 3 4 3 2 5 7 8 8 7 7 9 10 10 10 9 6 9 9 8 9 8 6 8 9 7 6 7 7 7 7 7 6 6 6 6 8 10 10 10 9 7 5 6 7 7 7 9 12 15 17 19 23 26 29 31 30 28 26 25 23 18
2 2 2 0 1 1 3 4 5 6 6 7 9 9 9 9 8 7 7 8 9 9 8 7 8 9 7 7 7 8 8 7 7 7 8 8 7 9 11 10 9 9 9 7 8 8 7 5 6 7 9 11 14 19 23 27 30 31 30 26 21 19 22
2 1 2 1 2 2 2 4 4 5 5 7 9 8 8 7 6 6 7 8 7 7 7 8 7 7 7 7 7 8 8 8 7 8 10 11 11 11 11 11 9 9 10 9 9 10 10 8 4 2 4 6 9 13 18 22 25 27 27 24 20 18 21
2 0 1 0 1 3 1 3 4 4 6 7 7 7 7 6 5 5 7 7 6 6 7 7 7 7 8 7 7 8 8 7 9 10 11 13 14 13 12 12 11 11 11 11 10 10 12 14 9 1 2 2 5 10 13 17 20 21 20 20 21 21 23

ECMWFFLT2_925_spd_015.txt.gz
Wind_Speed
10 13 10 10 10 6 3 5 8 7 6 6 6 6 4 1 4 5 4 4 5 3 6 5 7 11 12 15 16 17 18 16 14 12 13 16 16 16 17 17 19 20 19 19 24 28 31 32 34 37 40 42 43 42 41 42 43 43 44 46 46 46 45
12 12 9 8 10 9 5 5 8 4 3 6 5 3 5 5 6 5 3 6 5 3 6 4 5 8 10 11 13 16 17 14 12 12 14 16 17 18 19 19 18 18 18 19 24 29 33 35 37 40 43 44 43 43 42 43 43 44 46 47 46 46 45
10 7 8 6 7 10 8 6 7 6 4 7 5 4 6 7 6 5 3 5 6 6 6 4 6 9 10 11 11 13 16 14 12 13 14 16 17 17 16 17 16 16 18 19 23 30 34 36 38 41 43 42 41 42 43 43 45 46 46 46 46 46 45
9 5 7 7 7 10 7 3 5 5 5 6 6 4 4 4 5 5 3 4 6 7 6 7 10 11 12 12 11 12 15 14 13 13 14 15 16 16 15 16 17 18 19 21 26 32 34 37 39 39 38 37 39 41 41 41 43 43 43 43 44 45 45
7 4 5 10 11 10 7 5 7 7 3 3 5 4 3 4 4 4 3 6 7 5 5 9 11 11 12 12 11 12 14 15 14 15 15 15 16 16 16 16 17 19 19 21 27 34 35 37 37 35 35 36 39 39 39 41 41 40 41 43 44 44 44
5 5 7 12 15 13 10 8 8 9 5 4 5 6 4 4 5 5 5 8 9 5 5 8 10 10 10 11 11 11 12 15 15 15 16 16 16 16 17 18 18 19 19 19 24 30 32 31 31 32 34 36 37 37 39 40 40 40 43 44 45 44 42
6 7 9 12 15 15 12 9 8 7 5 5 6 8 5 4 4 2 3 6 9 5 7 9 9 10 9 9 11 11 11 13 14 15 17 17 17 17 17 18 17 17 18 18 20 24 27 29 30 33 34 34 36 38 39 38 39 42 45 45 45 43 42
5 6 7 6 7 10 10 10 9 8 7 7 8 6 4 5 4 2 2 7 7 4 6 8 9 10 10 8 9 10 10 9 10 14 15 14 15 16 16 17 16 16 15 15 15 17 20 25 29 31 33 35 36 37 38 38 41 44 45 43 42 41 41
6 5 5 5 4 5 5 6 10 11 12 11 7 2 3 4 6 7 6 7 6 4 3 5 8 9 9 8 8 9 9 8 9 11 12 12 13 14 15 15 15 16 14 13 14 14 16 22 27 30 32 34 35 36 38 40 42 43 43 41 40 40 40
7 5 5 6 5 4 3 5 10 14 17 17 10 4 4 6 6 8 8 7 6 5 3 4 8 9 9 9 8 8 9 9 10 10 11 12 12 13 16 16 16 16 14 14 15 14 15 21 26 28 31 33 35 37 40 41 41 41 41 41 39 39 39
5 4 6 8 5 5 10 11 11 13 18 19 14 8 8 6 5 6 8 6 3 4 3 5 9 9 9 9 8 8 9 9 10 10 11 11 12 14 16 16 15 14 13 14 16 16 17 22 27 29 30 33 34 35 38 40 40 40 40 40 39 39 39
7 7 12 14 13 11 13 15 14 14 15 17 17 15 9 8 7 9 7 7 6 7 7 8 10 9 8 10 10 9 8 9 9 9 10 10 11 13 13 14 14 14 14 15 16 16 17 21 26 28 30 33 34 35 37 38 38 39 39 39 39 40 40
13 12 14 14 13 13 12 13 17 17 15 16 20 18 11 11 11 12 8 10 9 8 8 9 10 10 10 11 9 5 4 6 8 9 10 11 12 14 15 15 15 15 15 15 16 17 17 18 22 26 28 31 33 33 35 36 38 40 40 40 40 40 39
15 14 13 12 11 11 12 13 16 18 18 19 20 18 14 15 17 13 9 11 12 9 9 10 10 10 8 5 3 3 6 7 8 9 11 13 13 15 15 16 15 15 16 16 16 16 16 16 20 24 26 30 32 34 35 36 38 39 38 39 39 39 40
12 12 11 12 13 12 11 13 14 17 20 21 21 19 14 12 14 12 8 10 10 8 8 9 9 8 4 3 4 6 9 9 7 8 10 12 13 14 14 15 15 15 16 15 14 15 16 18 21 25 28 31 33 34 35 36 38 38 38 38 38 39 41
8 8 10 16 19 15 11 13 16 17 18 18 17 15 12 12 12 11 9 8 7 8 8 7 7 6 5 7 8 7 8 7 7 8 10 11 12 13 13 14 14 15 16 16 15 16 17 19 22 26 29 29 30 32 34 37 38 37 38 38 39 40 41
6 9 12 15 15 12 10 13 16 16 14 13 12 11 11 13 13 12 12 12 9 9 8 6 6 9 9 8 6 6 7 7 6 7 8 9 10 10 11 12 14 15 15 16 17 18 18 20 26 31 32 31 31 35 38 38 36 35 37 38 38 39 38
6 12 13 11 7 6 9 8 8 13 14 12 11 11 11 12 11 8 9 11 11 10 8 9 10 10 7 5 3 3 4 4 5 7 7 7 8 8 8 9 11 13 13 13 15 17 21 26 31 33 34 34 35 37 37 35 34 35 36 37 37 38 37
5 9 8 6 5 7 8 9 2 9 13 12 10 9 9 9 9 6 5 7 11 10 7 8 8 6 6 5 2 3 4 3 2 4 5 6 7 7 6 7 8 9 12 13 13 15 21 28 30 30 31 33 33 32 32 33 35 37 38 38 39 38 37
4 4 3 4 6 9 13 11 7 7 4 4 7 7 7 6 6 6 6 8 9 7 7 7 6 7 7 4 4 5 5 5 4 3 4 4 4 6 6 7 7 7 7 10 13 18 24 27 27 29 32 33 31 31 33 34 35 37 37 36 36 35 34
3 3 4 5 7 12 11 5 4 7 6 5 5 6 7 5 4 6 8 9 7 6 8 9 8 7 5 4 4 5 7 7 6 5 5 5 6 6 5 5 7 8 7 7 9 14 20 24 28 30 32 33 32 30 31 32 32 33 33 32 33 34 34
3 3 5 4 5 6 4 3 8 8 7 10 8 4 5 6 3 3 5 8 8 9 11 11 8 5 6 4 4 6 8 8 8 7 6 5 6 7 7 6 4 5 9 10 8 10 15 20 28 32 31 31 29 27 27 30 30 30 30 32 34 34 35
4 3 4 3 3 5 4 8 15 15 14 14 6 1 5 6 4 2 3 5 4 8 13 12 7 6 6 3 5 6 7 8 7 8 8 7 7 7 8 9 9 7 5 9 11 11 12 17 23 27 29 31 29 26 26 28 28 27 29 33 35 36 38
5 3 2 3 4 5 5 11 17 19 19 12 3 5 7 5 4 4 3 5 3 5 9 8 5 5 6 6 4 5 7 7 6 7 8 8 8 8 9 11 13 12 4 5 10 12 14 18 18 17 21 25 25 26 27 26 25 27 33 36 37 39 41
5 4 2 3 4 4 7 14 18 20 16 6 7 7 6 2 3 3 3 5 4 4 6 6 4 4 4 4 0 4 6 6 7 8 8 8 9 9 9 12 15 14 9 4 6 7 11 15 15 14 16 17 19 22 23 23 26 33 39 40 41 41 40
2 3 1 3 5 3 9 16 18 15 7 3 5 5 6 3 3 3 4 5 4 6 8 7 6 5 5 4 4 4 6 7 6 8 9 9 11 13 15 17 17 15 12 9 7 4 1 6 12 17 18 17 17 17 16 21 31 36 36 36 37 37 35
1 2 1 3 6 4 12 16 13 8 5 3 5 7 6 5 5 4 4 4 4 6 9 9 8 7 6 5 5 6 7 8 7 8 9 9 9 11 13 16 18 15 10 9 11 10 7 3 7 16 21 20 17 16 17 24 29 26 23 25 28 29 28
2 3 4 3 4 5 10 10 6 5 6 7 6 5 4 5 6 5 3 4 4 5 9 10 8 7 6 5 5 6 6 7 7 7 9 9 9 9 9 12 16 15 10 8 12 12 10 7 2 9 17 20 17 17 21 25 24 21 21 21 22 24 25
2 3 4 2 1 5 6 6 6 7 7 7 8 8 6 5 5 4 3 3 4 5 8 9 8 6 6 5 5 6 5 6 6 6 7 7 7 8 9 12 15 14 11 10 11 11 11 10 7 2 6 12 15 18 24 25 22 22 22 22 22 24 26
0 0 2 2 1 4 5 5 6 7 6 8 9 9 8 7 7 6 4 4 5 4 5 8 7 5 5 5 5 5 5 5 6 6 7 7 7 7 8 11 13 13 11 12 11 11 12 12 10 8 5 3 6 12 20 23 23 24 24 23 24 26 27
2 2 3 3 3 2 4 5 6 8 8 7 7 7 8 8 9 9 8 5 6 6 6 7 8 5 5 6 6 5 5 5 5 6 6 7 7 8 8 10 12 10 8 8 9 9 12 15 15 13 10 9 9 8 11 15 20 25 27 27 27 27 28
4 4 3 2 3 1 3 4 5 7 8 8 8 8 9 9 9 10 10 7 5 6 6 6 7 7 7 6 6 6 5 5 5 5 5 5 6 7 9 10 11 9 7 6 7 7 9 13 17 16 14 13 11 8 8 10 12 17 24 30 32 32 34
3 3 3 1 2 1 3 4 4 4 5 5 6 8 9 10 9 8 8 7 6 6 6 6 7 9 7 6 6 7 6 6 6 5 5 5 5 7 8 9 9 9 7 7 7 7 8 11 14 15 15 14 13 10 9 10 12 13 16 20 23 26 29
3 4 4 3 4 3 1 1 2 2 2 2 5 7 8 8 7 7 6 5 6 7 6 5 7 9 6 5 7 8 7 6 7 7 7 7 6 8 10 11 10 9 8 9 9 9 10 12 13 13 14 13 12 12 11 10 11 14 16 16 16 17 18
4 5 5 4 3 4 4 4 3 3 2 2 6 7 6 4 4 8 6 1 5 6 6 5 7 8 6 5 7 8 7 6 6 7 8 7 7 9 12 11 10 9 9 9 9 10 11 12 11 11 12 12 12 11 10 8 9 10 11 12 13 12 11
3 4 5 4 3 3 4 5 4 2 0 2 4 5 4 2 4 7 6 2 3 5 6 5 5 7 7 7 7 8 8 7 7 8 9 10 10 11 12 12 10 10 10 9 9 10 11 12 10 9 8 9 9 9 9 9 8 8 8 8 8 7 7
1 2 2 3 3 4 4 3 2 1 3 4 3 1 0 2 4 6 4 1 2 4 7 7 5 7 8 8 8 8 8 7 8 9 10 11 12 12 12 12 12 12 12 10 10 11 12 12 11 9 7 8 7 7 7 8 9 11 12 10 6 2 4

ECMWFFLT2_925_spd_021.txt.gz
Wind_Speed
14 18 14 14 12 7 6 9 11 8 7 8 6 3 1 1 5 5 5 7 5 4 8 8 8 7 9 10 10 11 13 12 10 9 11 14 15 17 18 19 20 20 19 20 24 26 26 29 31 33 34 35 36 35 34 38 39 35 37 40 39 38 39
13 13 15 16 14 10 7 9 10 7 6 8 7 5 3 5 8 5 5 10 8 5 6 4 9 10 10 11 12 12 12 11 11 11 12 14 16 17 19 20 19 18 18 20 25 28 29 31 33 35 37 37 38 38 36 37 38 38 38 40 40 39 39
10 9 13 13 11 10 5 7 10 8 5 8 7 6 6 7 9 5 4 8 8 9 7 2 6 10 10 11 11 11 13 12 12 12 13 14 15 15 16 17 16 16 19 21 26 30 32 33 33 34 37 36 36 37 37 37 38 40 39 38 38 38 38
10 10 11 10 10 7 3 7 11 6 4 6 8 6 4 5 7 5 3 5 6 9 10 9 9 9 10 10 9 10 13 13 12 11 12 12 14 14 15 16 17 19 21 23 29 32 33 34 33 33 34 35 36 37 36 36 36 35 35 35 35 38 40
8 9 9 11 13 10 6 8 11 8 4 3 5 5 4 4 5 4 5 6 4 2 6 13 16 13 11 10 9 10 11 13 13 11 11 11 13 14 15 16 18 20 21 23 29 33 32 32 31 31 31 32 34 35 35 37 36 33 34 35 35 37 39
7 7 10 15 17 16 13 11 11 12 9 6 6 7 6 6 5 4 4 7 4 2 3 8 12 12 11 10 10 10 10 12 12 11 11 10 10 13 15 16 17 18 18 20 25 29 29 28 28 29 30 30 32 34 35 36 36 34 35 35 34 37 38
3 4 8 10 9 10 12 11 11 13 11 9 8 7 6 8 6 2 2 7 4 3 5 7 9 10 10 10 9 9 10 11 11 11 11 8 7 9 11 13 14 15 16 17 20 23 25 27 27 30 31 30 32 35 35 34 34 35 36 35 34 37 39
2 3 5 5 3 5 9 10 10 11 11 12 11 7 4 6 7 5 4 8 4 2 3 4 4 5 6 7 7 8 9 8 8 9 9 8 6 6 7 10 11 12 13 14 15 16 19 23 26 28 30 31 32 33 33 33 35 36 36 34 33 36 39
4 5 7 7 5 4 4 4 4 5 11 16 14 6 2 5 10 11 9 8 3 2 1 2 3 3 5 7 6 7 8 6 6 7 7 7 6 5 7 9 10 11 12 13 13 14 16 21 26 28 30 30 31 32 33 34 34 34 34 33 32 35 37
10 8 7 6 3 2 1 1 1 2 6 13 14 7 4 6 9 12 12 8 2 3 1 3 4 4 6 8 8 6 6 7 6 5 5 5 5 6 8 9 9 10 11 12 14 14 15 20 25 27 29 30 31 32 33 34 34 32 32 33 32 33 35
2 2 1 2 3 1 2 2 3 3 3 5 8 9 8 6 5 9 13 10 4 4 4 3 4 6 6 7 8 7 6 6 6 5 4 5 5 6 7 6 6 8 9 11 14 14 15 20 25 27 29 31 32 31 32 33 32 30 31 33 32 32 35
3 3 4 4 3 2 3 5 7 6 4 4 6 9 7 5 7 11 11 10 10 9 5 3 4 5 6 6 8 7 5 5 5 4 4 6 7 7 6 6 8 9 10 11 12 12 15 19 24 26 28 30 30 30 31 32 31 31 32 32 32 33 34
4 5 6 3 2 3 4 6 9 9 8 7 8 9 8 6 8 10 6 8 12 10 8 10 8 5 6 8 7 5 4 4 4 3 5 7 8 8 7 8 9 10 10 11 11 12 13 17 21 23 26 28 28 28 29 30 32 33 31 32 34 32 33
5 5 6 3 1 3 6 8 10 11 12 11 11 11 11 11 11 12 10 10 11 8 8 13 13 8 6 6 5 5 6 6 4 4 6 8 8 7 8 8 9 10 11 11 11 11 11 14 18 22 24 26 28 30 31 31 33 34 31 34 37 34 33
5 4 5 4 3 6 9 10 11 11 12 12 12 11 11 11 10 11 14 14 10 5 4 9 11 6 3 5 7 7 8 6 5 6 7 6 6 7 7 7 7 8 9 10 10 11 13 15 18 22 23 25 28 30 31 31 33 33 32 34 37 37 34
5 3 4 7 9 10 12 12 12 13 12 11 9 9 9 10 8 10 12 12 8 4 4 8 10 7 5 8 10 8 7 6 6 7 7 6 6 6 5 4 5 7 9 10 12 14 15 16 19 23 24 25 26 28 31 33 34 33 32 33 37 37 33
4 4 5 9 10 10 9 8 6 8 9 8 9 9 9 10 9 9 9 7 6 5 7 10 10 10 11 10 9 9 7 6 7 8 8 8 7 6 5 5 6 8 9 9 12 14 15 18 23 27 27 26 26 30 31 29 29 30 31 33 36 36 31
3 5 6 8 8 7 4 1 1 3 6 6 6 8 9 9 9 9 10 9 8 7 8 9 10 13 14 10 7 6 5 5 6 8 8 7 7 7 7 7 7 7 7 8 10 13 16 20 23 25 26 27 28 28 26 23 25 27 28 30 32 31 30
4 4 4 6 8 5 1 3 1 4 5 4 6 9 9 6 6 8 11 12 12 10 8 9 10 13 13 6 1 3 4 4 5 7 7 6 6 6 6 7 7 6 6 8 9 11 15 19 20 21 25 28 27 25 23 24 28 31 31 31 30 27 28
3 2 4 7 3 7 10 3 3 1 1 1 5 7 3 3 7 6 7 9 11 11 10 8 8 9 8 3 1 4 5 5 5 7 6 5 5 6 5 6 6 6 6 8 9 11 12 15 18 21 24 25 24 24 24 25 27 30 30 29 27 27 28
5 4 7 8 5 11 15 5 4 3 1 1 2 3 1 3 6 6 7 9 11 12 11 9 7 5 5 6 5 6 6 6 6 6 5 4 4 5 6 6 7 8 8 10 11 11 11 13 17 19 20 22 23 23 23 24 26 27 26 26 27 30 31
5 5 7 8 8 9 7 3 5 2 2 2 2 2 3 1 6 8 8 9 11 11 11 10 6 3 5 8 7 7 8 7 5 4 5 5 4 5 6 7 7 8 9 10 10 10 11 13 15 16 18 20 21 20 20 23 23 22 23 25 27 30 32
6 7 8 8 8 5 3 7 5 2 2 5 5 4 2 2 8 10 9 10 11 11 11 11 6 4 8 8 5 4 7 6 2 2 3 4 4 4 5 5 7 7 7 6 5 5 8 9 11 14 17 19 19 18 18 20 20 21 24 27 28 30 31
7 7 7 7 6 3 2 5 3 1 2 6 5 5 2 3 7 9 8 10 11 9 11 11 7 7 7 5 3 4 4 3 1 1 3 5 5 5 5 5 5 5 3 3 4 2 2 3 5 11 16 17 17 16 15 17 20 22 24 24 25 26 24
9 9 8 7 5 4 2 2 1 1 4 5 5 5 1 2 6 7 8 10 9 8 9 9 7 5 3 3 4 5 5 3 4 4 4 5 5 5 5 5 4 4 7 9 9 7 6 4 0 7 12 14 13 13 13 15 18 19 19 20 22 22 21
7 7 7 7 5 2 1 3 2 2 4 5 4 1 0 3 6 7 8 10 9 7 8 9 9 6 3 3 3 3 4 4 4 5 6 6 5 5 4 4 3 6 9 11 11 10 9 8 5 4 8 9 8 10 10 9 10 11 13 19 24 23 23
7 7 8 7 4 1 2 1 3 5 5 3 2 2 1 3 5 7 7 8 7 7 7 9 9 6 3 2 1 3 4 4 4 5 6 6 6 6 4 4 6 8 10 12 13 12 11 11 10 7 7 7 6 6 5 2 0 4 9 15 20 22 23
6 8 7 4 3 4 8 8 5 3 1 1 1 2 2 2 4 5 6 6 7 6 6 7 7 5 2 1 2 3 4 4 4 4 4 5 5 6 5 5 7 9 10 12 14 14 14 14 14 12 10 10 10 8 6 5 3 2 5 10 15 18 21
4 6 6 8 10 9 8 9 9 6 3 1 2 2 1 1 3 4 5 7 8 7 5 5 5 4 2 2 4 4 4 5 5 4 4 5 5 5 6 7 9 10 11 13 14 15 16 15 15 15 14 13 13 11 6 4 3 2 4 8 10 13 16
7 7 8 11 15 14 10 10 10 8 4 3 3 3 1 2 3 4 5 7 8 8 6 3 2 3 2 3 5 5 5 5 6 6 6 6 6 6 7 8 8 10 12 13 15 16 16 15 15 15 14 14 13 10 7 6 6 5 5 6 7 7 8
7 6 6 10 13 12 11 10 12 11 8 5 4 3 1 3 4 5 6 7 7 6 6 4 2 2 2 3 4 5 5 6 6 6 6 7 8 8 9 9 8 9 10 11 13 14 14 15 15 15 15 15 14 11 10 9 8 8 8 7 7 5 4
6 7 11 13 15 15 12 10 11 11 9 6 4 4 2 6 7 6 6 6 6 6 6 6 5 4 4 5 5 5 6 6 6 6 6 6 7 9 10 10 9 10 11 11 12 13 14 14 15 15 15 15 14 13 13 11 9 10 10 9 8 7 6
8 11 13 13 14 15 14 12 12 12 9 6 4 5 2 8 10 7 6 5 6 7 7 8 8 7 7 8 8 7 6 7 7 6 6 6 7 8 9 10 11 12 11 12 13 14 14 14 15 15 15 15 14 13 12 11 10 11 11 10 9 8 6
8 9 8 7 8 9 8 9 12 13 11 7 3 3 2 7 11 6 5 5 6 7 8 9 9 9 9 10 9 7 7 8 7 7 6 6 6 8 9 10 13 13 12 12 14 14 14 15 15 15 14 14 13 12 11 10 10 10 9 9 9 8 7
12 11 9 8 9 10 10 12 15 15 13 8 1 2 4 3 10 7 2 4 6 7 8 8 9 9 9 10 10 8 8 8 8 8 8 6 6 8 10 11 13 13 12 13 14 15 14 15 14 14 13 13 13 12 11 10 10 10 9 9 8 7 6
15 15 13 11 11 13 14 16 17 15 14 10 3 3 4 2 7 8 3 4 6 6 7 7 8 9 8 9 9 9 8 8 9 9 9 9 9 9 10 11 11 12 12 13 13 14 14 15 14 13 13 13 13 12 12 11 11 10 9 8 8 7 6
14 14 13 12 14 17 16 16 17 16 17 14 6 6 5 4 5 8 4 4 6 6 6 7 8 9 9 9 9 9 8 9 10 10 10 10 11 10 11 12 11 11 12 12 13 13 14 15 14 14 14 14 13 12 12 11 10 10 9 8 8 7 5

ECMWFFLT2_925_spd_024.txt.gz
Wind_Speed
18 21 19 18 15 9 9 12 13 11 10 9 7 5 4 4 7 7 8 9 7 5 5 7 9 9 11 13 13 14 14 14 14 13 13 14 15 16 17 17 18 19 20 21 24 27 28 30 31 33 34 35 34 32 32 33 33 33 33 33 33 32 32
19 19 20 20 18 12 8 10 13 10 10 10 8 7 6 7 9 7 9 12 10 8 6 8 14 15 12 13 13 13 13 12 13 12 13 14 15 16 17 18 17 18 19 20 24 28 30 32 33 34 36 35 35 34 33 34 34 35 35 35 34 33 34
18 17 17 17 19 19 12 8 11 11 10 10 8 7 8 9 9 7 10 12 10 9 6 4 11 16 15 15 14 13 14 13 13 13 14 15 15 14 15 16 15 17 19 21 24 28 31 33 33 34 35 34 34 34 34 34 36 37 36 34 34 34 34
16 15 14 12 15 18 15 10 10 10 8 8 9 8 7 8 8 7 9 10 8 8 9 8 9 10 12 13 13 13 14 14 13 13 13 14 14 13 14 15 16 18 19 22 26 29 30 31 31 31 32 33 34 34 34 34 34 34 34 33 33 33 34
16 12 12 14 15 15 14 12 12 11 9 6 7 9 9 8 7 6 6 7 4 1 5 11 13 12 12 12 12 12 13 14 14 13 13 13 13 14 15 15 16 18 19 21 26 28 28 28 28 28 30 32 33 32 33 34 33 33 34 35 33 33 33
12 12 13 17 17 16 15 12 12 12 11 9 8 9 10 9 8 7 6 6 3 3 3 5 7 9 11 12 12 11 12 13 12 12 12 12 12 13 14 14 15 16 16 17 21 24 25 26 28 29 30 31 31 32 33 34 34 34 35 36 35 33 33
10 12 15 18 19 19 17 14 13 13 12 11 9 7 8 8 9 8 7 7 3 4 4 2 2 4 6 8 10 9 10 11 10 10 10 9 9 10 11 11 12 12 12 14 17 20 23 25 27 29 29 30 32 33 33 33 34 35 35 35 35 34 33
7 8 12 15 18 18 17 15 14 14 14 13 10 8 6 7 9 9 7 8 4 4 4 3 3 5 5 5 7 7 7 6 7 8 6 4 6 7 8 10 10 10 11 12 14 16 19 22 25 27 28 29 31 33 33 33 35 36 35 34 34 34 34
7 8 9 13 16 15 12 13 17 18 18 18 14 10 8 7 9 10 8 7 3 4 4 3 3 5 5 3 4 4 4 3 3 4 2 3 5 6 7 9 9 11 12 12 13 13 15 20 24 25 27 28 29 31 33 34 34 35 35 34 33 34 34
11 11 9 8 11 13 11 12 18 20 21 21 15 10 10 8 9 10 9 6 3 7 5 5 5 6 5 3 2 2 2 3 2 1 0 2 4 5 7 9 10 11 11 12 12 12 15 20 23 24 25 27 27 28 30 31 31 32 33 33 34 34 33
4 2 2 3 2 11 16 16 16 16 19 21 16 11 10 8 8 10 10 8 4 7 8 8 7 6 3 2 2 2 1 0 1 0 1 1 3 5 7 8 9 11 11 12 13 13 15 19 22 23 25 26 26 27 28 29 29 29 31 33 33 34 33
2 4 5 6 4 6 14 16 16 15 17 18 16 14 11 8 8 9 10 12 11 9 9 8 6 4 2 2 4 4 2 4 4 3 2 4 4 4 7 9 10 11 12 12 13 13 15 19 21 23 24 26 26 26 27 28 28 29 30 32 33 33 33
1 2 3 3 2 1 3 8 12 13 15 16 16 15 13 11 9 7 6 10 13 12 11 10 7 6 6 7 8 9 8 9 8 7 7 9 8 4 5 9 10 11 11 12 12 13 14 17 21 23 24 25 26 27 27 28 30 30 30 31 33 33 33
2 2 1 1 1 1 2 5 7 8 11 13 13 14 15 13 11 9 8 8 9 9 10 10 10 9 9 10 10 11 13 14 14 13 14 14 12 10 6 4 9 10 10 11 12 13 13 15 19 22 23 24 26 27 27 28 29 30 30 31 32 32 33
4 4 3 2 3 4 5 8 8 9 10 11 12 12 12 12 12 14 14 13 10 7 7 9 9 8 9 9 10 11 12 14 16 16 16 15 13 13 11 5 6 7 8 10 11 12 14 15 19 21 23 24 25 27 28 29 30 30 30 30 30 32 32
5 5 5 5 4 6 10 12 12 12 12 12 12 11 11 12 13 14 16 14 10 8 9 11 11 11 13 14 13 13 12 14 15 16 16 16 14 14 13 8 6 6 7 9 11 13 14 16 19 22 23 23 24 26 28 29 29 29 30 30 30 31 30
4 5 5 4 3 7 11 12 14 15 14 13 12 12 13 14 13 12 13 11 8 8 9 10 10 11 13 13 12 12 12 13 15 16 16 16 16 15 14 9 6 6 6 7 9 11 12 15 20 22 23 24 25 27 27 26 26 28 30 31 29 28 28
4 4 2 3 6 9 6 3 7 14 15 15 16 15 14 14 13 11 11 9 8 8 8 8 8 9 10 10 10 10 10 10 12 14 15 15 15 15 13 11 9 7 5 5 7 9 11 15 18 19 22 25 25 25 25 25 27 29 30 31 28 27 28
5 2 2 6 8 5 2 5 3 5 9 11 12 11 10 10 11 12 12 11 10 9 9 9 9 10 11 12 12 12 12 11 11 13 14 14 14 14 12 11 10 7 5 5 6 8 10 12 14 16 19 22 22 22 24 27 29 29 29 29 28 27 29
5 4 6 8 3 2 3 3 4 5 6 6 7 9 11 10 7 7 9 9 9 9 10 9 9 10 11 12 12 12 13 14 14 14 14 14 13 12 9 8 7 6 6 7 8 8 9 10 12 14 16 18 20 21 24 26 27 28 28 28 28 28 28
6 6 7 6 3 3 5 5 4 4 5 5 3 7 8 7 4 2 4 6 7 9 9 7 7 9 9 9 11 13 16 17 17 15 13 11 10 8 7 7 8 8 9 10 10 10 10 10 12 12 13 16 18 20 22 24 25 26 26 27 28 28 28
6 6 7 7 7 7 6 6 7 5 4 4 2 3 4 7 7 2 3 4 6 8 7 6 6 7 7 8 8 8 11 12 11 9 8 6 6 6 6 7 8 9 9 10 11 11 11 11 11 11 12 15 17 19 20 22 23 24 26 28 29 28 27
6 7 8 7 7 3 2 6 8 6 3 4 3 4 5 6 7 2 3 4 6 7 6 6 5 4 7 8 4 5 10 10 7 6 5 4 5 5 5 6 7 8 9 10 11 11 11 10 9 10 12 14 16 18 19 20 21 23 25 27 27 25 23
7 8 8 6 5 1 4 4 5 6 3 2 4 6 4 5 5 1 2 4 5 7 7 6 4 5 6 5 4 8 11 10 7 6 6 6 6 6 6 7 7 8 8 7 8 8 7 6 6 8 12 13 15 16 17 19 20 21 22 22 22 22 22
8 9 8 6 5 1 2 3 3 3 0 3 4 3 2 4 2 2 2 4 5 6 7 6 4 5 7 9 11 11 11 10 8 6 6 7 6 6 7 7 7 7 5 4 5 4 2 2 4 7 10 12 13 14 15 17 18 18 18 19 20 21 22
8 8 8 7 6 1 2 4 4 2 3 3 1 2 2 1 2 2 3 4 4 5 7 7 6 8 10 14 15 13 11 10 9 7 7 7 6 6 7 6 6 6 4 4 5 5 5 3 3 6 9 11 12 13 14 15 16 16 15 16 18 19 21
7 8 8 8 5 4 7 6 4 3 3 3 5 6 5 3 5 5 4 3 3 5 7 8 9 11 12 13 13 11 11 10 8 7 7 7 6 6 6 6 7 7 5 5 6 7 7 6 3 5 9 10 10 11 11 9 10 12 12 13 14 16 18
5 9 8 3 2 4 6 5 3 3 6 8 9 9 7 5 6 5 5 5 5 6 8 9 10 11 10 11 11 10 10 9 7 6 5 5 5 5 5 6 7 6 5 4 5 6 8 9 7 2 5 8 8 8 7 5 5 6 8 9 11 13 14
4 7 6 7 10 9 6 6 6 9 11 11 11 12 10 8 6 5 5 7 7 6 7 8 9 8 8 8 8 8 7 6 5 4 4 4 4 3 3 4 4 3 3 4 5 6 7 9 10 8 5 5 7 7 6 4 4 5 7 8 9 11 12
7 9 10 10 12 13 11 9 9 10 11 11 11 11 10 9 8 7 7 7 7 5 5 6 7 7 6 6 6 5 5 4 3 2 2 1 2 2 1 2 2 2 4 5 6 7 8 8 9 9 9 8 8 7 5 3 3 4 6 8 9 10 11
7 7 8 9 12 13 13 12 12 12 13 11 9 9 9 9 9 8 8 7 5 4 3 4 6 6 4 4 5 3 2 2 1 1 1 1 2 2 2 3 3 3 4 5 6 8 9 9 9 9 9 9 8 6 4 3 3 3 5 7 8 9 9
9 9 10 12 15 17 15 14 12 12 12 12 11 10 11 11 10 9 8 7 4 2 2 2 5 5 4 4 5 3 1 2 2 2 2 3 2 3 4 5 5 5 5 4 5 7 8 9 10 10 10 10 8 7 7 5 4 4 5 6 7 8 8
9 11 12 13 14 16 16 14 11 9 10 12 13 12 12 14 13 11 9 8 4 0 2 2 2 3 4 5 5 3 2 2 3 3 3 3 3 5 6 7 7 7 6 6 6 8 9 9 10 11 11 11 10 9 8 7 6 6 6 6 7 7 7
9 10 10 9 10 11 11 10 11 13 13 13 14 14 13 14 15 12 10 9 5 2 3 2 1 2 2 3 3 3 3 4 4 5 4 3 4 7 7 8 8 9 9 8 8 8 9 9 10 10 10 10 10 9 8 7 6 6 6 7 7 7 6
11 11 10 9 9 10 12 13 15 15 14 13 15 15 13 13 15 14 11 10 6 3 4 3 2 2 2 2 3 4 5 5 5 6 7 6 6 7 8 8 9 10 10 10 10 10 9 9 9 10 10 10 10 9 9 8 6 6 6 5 6 6 6
15 15 13 11 11 14 16 16 16 16 14 14 15 16 14 13 14 15 13 11 7 3 5 4 3 3 3 4 5 6 6 6 6 7 9 10 9 9 8 9 10 10 11 12 11 11 10 10 10 11 11 11 11 10 9 9 8 8 6 5 6 7 7
15 14 12 11 13 16 16 16 17 17 16 15 15 16 15 13 13 14 13 10 7 2 3 5 4 3 5 6 6 7 7 7 8 9 10 11 11 10 10 10 10 10 11 12 12 12 12 12 12 12 12 13 12 11 10 10 10 10 10 9 8 8 7

ECMWFFLT2_925_spd_027.txt.gz
Wind_Speed
20 23 21 19 15 10 10 12 13 12 12 11 7 7 8 7 8 8 9 10 9 7 8 9 9 13 19 20 18 17 16 16 16 16 18 17 15 14 14 16 18 19 20 21 25 28 30 31 33 34 35 37 37 35 35 36 36 36 36 35 34 33 32
21 21 22 22 19 13 9 12 14 11 11 11 8 6 6 6 8 7 8 12 11 8 7 9 13 14 15 19 21 18 17 18 17 16 17 18 18 17 17 18 18 19 20 21 24 29 32 34 35 35 36 36 36 35 36 37 37 36 37 36 35 33 33
19 19 20 19 19 20 13 11 13 12 10 10 8 7 7 8 8 7 9 11 9 9 8 8 14 16 15 16 18 19 20 20 18 18 19 21 20 17 16 17 16 17 19 21 24 29 32 34 35 35 35 34 34 34 35 36 38 38 38 37 35 34 34
19 15 15 14 16 20 17 12 12 11 9 9 9 8 7 7 7 6 9 10 8 9 9 9 11 14 15 15 14 15 17 18 17 17 17 19 18 15 15 14 14 17 20 22 27 30 31 32 33 33 34 35 35 34 34 35 36 37 36 35 35 35 36
18 13 13 16 16 17 16 13 12 12 10 8 9 9 8 7 7 6 6 7 7 6 8 9 9 12 14 15 14 13 13 15 16 15 14 15 15 13 13 14 16 20 20 22 26 29 29 30 31 32 34 35 35 35 34 35 35 36 36 36 35 36 36
15 14 17 20 20 19 16 13 12 12 12 10 10 10 10 9 7 6 5 5 3 5 3 5 7 10 12 13 13 13 13 14 14 15 15 15 15 14 14 15 16 16 17 19 22 25 26 28 30 32 33 34 35 35 35 35 35 36 37 37 37 36 35
14 17 20 20 22 22 19 16 14 12 12 12 10 8 9 9 9 7 6 5 3 8 5 4 4 5 9 12 12 11 12 12 12 14 15 16 17 17 17 18 15 13 14 15 18 22 24 26 28 31 31 32 35 36 35 34 35 37 37 37 37 36 35
13 16 19 19 21 21 18 16 15 14 14 13 10 8 6 8 10 9 6 6 4 8 7 5 4 2 6 10 11 10 11 10 10 12 13 13 15 14 14 14 12 13 14 14 15 17 19 22 25 29 30 31 32 34 34 35 36 37 36 36 35 34 34
12 13 15 16 18 17 13 14 17 18 18 17 13 9 6 7 10 12 9 7 4 8 7 4 5 7 8 10 12 11 10 9 10 10 7 7 8 9 9 9 9 12 13 13 13 13 15 20 25 27 28 29 30 32 34 34 34 35 35 34 34 34 34
12 11 11 11 15 15 11 15 22 22 22 21 15 9 7 7 9 10 9 6 5 9 8 7 7 8 7 10 12 11 9 8 7 7 9 8 6 5 8 9 9 10 11 11 13 12 13 20 23 24 26 28 28 30 32 33 32 33 33 33 33 33 33
6 2 3 4 10 15 16 19 23 24 24 22 16 11 9 8 7 8 8 6 9 11 10 8 9 9 7 8 12 12 10 10 10 9 7 6 6 5 6 8 8 8 9 10 13 12 14 19 22 23 25 27 27 28 30 31 30 31 33 33 33 33 33
9 4 9 9 6 14 18 22 23 23 24 25 20 14 12 10 8 8 9 7 5 11 12 9 9 10 8 7 10 12 11 9 9 8 5 5 8 9 8 8 8 9 8 9 11 12 14 18 21 22 24 25 27 27 28 30 30 30 31 32 33 33 32
12 6 7 10 7 9 12 18 24 25 24 26 24 19 15 13 9 7 11 13 9 7 12 12 10 10 8 7 6 7 7 5 5 5 3 1 6 11 11 8 8 9 9 9 10 12 13 16 19 21 21 23 24 25 26 28 30 30 30 31 32 32 32
14 10 8 9 7 7 8 12 18 23 24 25 24 21 19 17 13 8 10 15 14 9 10 12 10 7 4 2 2 3 3 3 4 4 1 4 4 5 9 9 9 8 9 10 10 11 12 13 16 19 20 21 23 24 25 27 28 29 29 30 32 32 32
13 11 9 8 7 6 7 7 10 17 23 24 22 21 20 17 15 12 8 9 12 9 6 5 5 4 2 3 3 3 3 4 4 4 4 4 5 3 2 5 7 9 9 9 10 11 12 13 16 18 19 21 22 24 25 27 28 28 28 29 31 32 32
10 12 11 10 8 7 9 9 10 12 15 17 17 16 15 13 13 12 9 7 7 5 3 2 1 1 4 5 6 6 7 6 6 6 6 5 5 4 3 2 2 7 10 11 11 12 12 14 17 18 19 20 22 23 25 26 26 27 28 29 30 31 31
9 14 14 11 9 8 10 11 12 10 9 11 12 11 11 11 10 8 8 7 6 5 4 6 6 7 7 6 6 6 5 5 6 7 7 6 5 5 3 4 5 5 6 7 9 9 8 11 14 17 20 21 22 23 23 23 25 27 29 30 29 30 30
9 11 10 10 12 11 9 8 10 12 12 12 12 11 12 12 10 8 7 6 5 6 6 8 8 7 5 3 4 4 3 4 6 7 8 7 6 6 5 5 6 5 3 1 3 4 6 8 10 12 16 19 20 21 21 23 25 27 28 28 28 29 30
8 8 8 10 13 11 8 8 10 13 15 15 15 15 14 14 13 13 12 9 7 6 5 4 4 3 3 3 5 6 6 6 7 8 9 8 7 7 5 4 4 4 4 3 3 5 6 7 8 8 11 15 18 19 21 24 26 25 25 26 26 27 29
6 6 8 9 6 4 6 8 6 7 11 16 17 16 16 15 14 13 12 12 10 7 6 4 1 2 4 5 6 7 9 11 11 12 12 11 10 8 5 4 5 5 5 5 6 6 7 7 8 9 11 12 15 19 21 23 25 25 25 25 25 26 28
6 6 8 7 3 2 5 8 6 5 8 11 11 12 13 14 13 9 7 7 6 3 4 4 3 3 5 5 7 10 13 14 12 11 12 11 8 6 6 7 6 6 6 6 6 6 7 9 10 10 11 12 14 17 19 21 23 25 25 26 27 27 26
7 7 9 9 8 7 7 8 8 8 9 8 6 7 8 9 10 8 5 4 5 5 7 7 3 2 4 7 7 7 7 8 8 9 10 9 7 8 9 8 8 8 7 7 7 8 9 11 11 11 11 12 13 15 18 20 22 24 26 27 28 27 26
9 10 10 10 10 7 6 9 12 9 6 5 5 6 7 6 4 4 5 7 7 7 7 5 2 3 7 8 4 4 8 10 10 10 10 11 10 9 9 9 9 9 10 9 10 11 11 11 11 11 11 12 12 14 17 19 20 23 26 26 27 27 26
10 10 9 9 7 2 1 3 8 7 5 5 7 9 6 4 4 3 2 5 3 2 3 3 4 6 7 6 3 8 11 10 9 9 9 10 10 10 10 10 11 11 10 10 9 9 8 7 7 8 8 11 12 13 15 18 20 22 23 23 23 24 25
11 11 10 9 6 2 2 3 6 5 4 6 7 6 3 5 5 4 3 4 3 4 4 3 3 4 6 8 10 12 12 11 9 9 9 9 9 10 9 10 10 11 10 7 7 8 9 8 7 7 7 8 11 12 13 16 18 18 19 20 20 21 23
11 11 9 10 7 1 4 2 5 4 4 5 3 2 6 6 5 4 5 5 6 6 6 5 5 6 9 12 13 13 13 12 11 10 9 9 9 10 9 9 8 9 8 7 7 8 8 8 7 6 7 7 8 9 11 13 14 13 14 17 19 20 21
9 10 11 11 7 3 9 4 2 3 1 0 3 7 8 7 7 7 7 6 7 7 7 7 7 9 11 12 12 12 12 11 11 10 9 8 8 8 8 7 7 8 8 7 7 8 8 9 9 7 6 8 7 7 9 9 10 11 11 14 17 19 20
7 10 9 5 1 5 9 5 2 5 6 5 6 7 7 6 8 8 7 7 9 9 8 8 9 10 11 10 10 10 10 10 10 10 9 7 7 7 7 7 8 8 6 5 6 6 7 8 9 10 5 5 7 6 5 4 4 8 11 11 14 16 17
5 7 5 4 5 5 5 4 4 7 8 7 8 8 7 7 7 8 8 9 11 12 11 9 8 9 10 11 10 10 9 9 9 9 9 9 8 8 7 6 6 6 5 4 5 5 7 7 8 10 7 2 4 3 4 3 0 3 7 9 10 12 13
7 9 9 8 6 4 4 6 7 9 10 9 9 9 8 8 9 9 10 11 13 13 13 11 9 9 10 12 11 10 9 9 9 8 9 8 7 8 7 5 6 6 4 4 4 4 5 6 6 8 8 4 3 4 3 1 2 2 4 6 8 9 10
6 7 8 8 6 4 5 8 9 9 9 9 9 9 9 9 11 11 11 13 15 14 13 12 11 10 10 10 10 9 8 8 8 8 8 7 6 7 6 5 5 6 3 3 4 4 4 5 6 6 6 4 2 1 0 2 3 2 4 6 7 8 8
9 10 11 11 10 10 10 9 9 9 8 8 9 9 9 11 12 12 11 12 13 14 13 13 13 12 9 8 7 8 7 6 6 7 8 7 6 5 4 3 3 4 3 2 3 4 5 6 6 6 6 5 4 2 1 1 1 3 4 5 6 7 7
10 12 14 13 13 13 12 12 12 9 7 8 9 10 11 12 12 13 13 12 11 13 15 14 13 12 10 8 7 7 6 5 5 7 7 6 5 3 2 2 2 2 2 2 4 6 6 6 6 6 6 6 5 5 4 3 2 3 4 4 5 6 6
9 10 11 11 11 10 9 10 11 8 7 9 10 11 11 12 12 14 15 14 13 14 15 15 13 11 9 8 6 6 5 4 4 6 7 5 4 2 0 1 1 2 2 2 4 5 4 4 5 6 6 6 5 5 5 5 4 4 4 4 5 6 5
10 11 11 10 9 9 9 11 13 10 8 10 12 12 12 13 12 13 14 14 14 15 15 16 14 12 9 7 6 5 4 3 2 3 5 3 1 1 2 2 3 4 5 5 5 5 4 4 5 6 7 7 7 6 6 6 5 5 4 4 5 5 5
13 13 13 11 10 11 12 14 15 13 10 11 13 13 13 13 12 12 13 12 13 14 15 15 16 14 11 8 7 5 3 3 3 2 1 2 3 3 4 5 6 6 6 7 7 7 6 6 7 8 8 7 7 7 7 6 7 6 5 4 5 5 6
13 13 13 12 12 13 13 14 15 14 12 12 13 14 14 13 12 12 13 12 12 13 14 15 17 16 13 10 8 7 5 3 3 4 5 3 2 2 4 5 7 7 8 8 9 9 9 9 9 9 9 8 8 8 8 8 8 7 7 8 8 8 7

ECMWFFLT2_925_spd_030.txt.gz
Wind_Speed
20 21 19 19 15 10 10 12 13 12 12 11 7 8 11 10 9 8 8 10 10 9 9 12 15 16 20 20 18 17 16 21 22 19 19 18 17 19 19 17 16 16 13 13 16 23 30 35 35 36 37 37 37 36 37 39 40 41 43 42 41 40 39
21 20 21 22 18 12 10 11 13 11 12 12 8 6 7 9 9 7 10 13 11 10 8 10 15 16 16 18 20 19 15 18 21 20 20 19 18 18 20 20 19 20 19 19 26 33 37 39 37 36 36 35 36 35 36 38 38 39 41 41 41 41 41
19 18 19 19 19 18 13 11 13 11 10 10 8 7 6 8 8 6 10 13 11 11 9 10 16 17 14 16 19 20 18 16 18 21 22 20 18 16 18 20 17 18 18 20 27 34 37 37 37 35 35 34 34 34 35 37 38 38 39 39 39 40 40
20 15 15 14 15 18 16 12 13 11 8 8 9 7 6 6 6 6 8 9 8 8 10 11 14 16 15 15 14 17 19 17 15 19 21 19 17 14 16 18 17 18 19 21 28 32 32 33 34 34 35 36 35 35 35 36 37 37 37 37 37 37 38
20 13 13 16 15 16 14 12 12 11 9 8 8 8 8 7 5 5 7 7 7 7 9 13 13 14 15 14 12 14 17 17 14 17 19 18 16 14 15 17 18 20 20 21 25 27 26 27 31 33 34 36 36 35 35 36 37 37 37 37 36 37 37
17 15 16 20 20 19 15 12 11 12 11 9 9 9 9 8 6 5 5 5 5 4 6 11 12 13 14 13 12 12 15 17 15 15 17 19 17 15 16 18 18 18 17 16 18 20 19 22 29 33 34 34 36 36 36 36 36 37 37 36 36 37 37
13 19 20 20 22 22 19 15 12 12 12 11 9 8 8 9 9 7 7 5 2 3 2 5 7 10 14 12 10 10 13 15 16 18 18 20 21 18 18 19 18 16 15 14 16 19 21 26 30 32 33 34 36 36 36 36 36 37 37 36 36 37 37
9 18 20 19 21 20 17 16 15 13 13 13 11 8 7 8 10 9 7 5 2 5 4 4 5 5 11 13 11 12 12 12 12 17 17 17 20 18 18 17 14 14 15 13 13 15 19 26 28 30 32 33 34 35 35 36 36 37 37 36 36 36 36
9 16 16 15 18 17 13 14 17 17 17 18 14 9 8 7 10 12 8 5 4 7 5 4 5 3 8 12 12 13 14 11 9 10 9 13 18 16 14 14 13 15 15 13 12 12 14 21 25 27 30 31 32 34 35 34 35 35 36 36 35 35 35
11 13 12 12 14 13 11 14 21 22 21 20 15 9 8 7 8 11 9 5 6 9 5 4 6 8 8 10 12 11 11 7 2 8 7 8 14 14 13 13 14 16 15 13 13 11 12 19 23 24 27 30 31 32 33 33 33 34 35 35 34 34 35
7 4 3 5 10 14 16 18 22 24 23 21 15 9 8 7 8 9 7 4 9 11 8 8 9 9 8 11 12 9 10 11 10 11 9 8 10 11 11 10 11 13 12 12 14 12 13 20 24 23 26 30 29 29 31 32 31 32 34 34 34 34 34
10 4 2 5 4 10 19 23 23 24 25 23 17 13 10 8 7 8 7 7 10 10 10 10 8 7 9 12 13 12 13 12 11 10 10 12 12 9 9 10 10 10 9 9 12 13 14 20 23 23 25 29 28 27 29 31 31 31 32 33 34 34 34
15 14 9 6 7 7 9 19 24 23 25 26 21 16 14 11 6 7 8 6 7 9 11 14 10 7 8 10 11 13 13 9 9 11 12 14 13 10 8 8 8 8 7 7 9 11 13 17 20 21 23 25 26 26 27 30 31 31 31 33 34 34 35
16 16 14 9 7 11 11 13 23 24 22 25 23 18 17 14 9 9 9 5 6 10 11 13 12 8 11 13 12 13 12 9 8 9 11 13 14 14 11 8 7 6 6 7 8 9 9 11 16 19 20 21 24 26 26 28 30 30 30 32 34 34 34
13 16 17 13 9 10 12 14 18 23 22 24 24 19 18 15 10 12 13 8 6 9 9 9 11 11 12 13 12 12 10 9 8 7 6 7 10 15 14 10 9 7 6 6 6 8 8 9 13 17 18 19 22 25 26 27 28 29 28 29 33 34 33
9 12 17 16 8 7 12 15 15 16 17 19 20 17 16 15 13 14 13 11 8 8 10 11 12 12 12 11 11 9 6 6 6 4 6 9 5 7 10 9 10 10 10 9 8 9 11 12 14 16 17 19 21 23 25 26 27 28 29 28 30 33 32
9 11 15 14 7 4 10 13 10 7 10 15 19 20 18 16 15 12 9 10 9 9 10 9 9 10 9 7 7 6 5 5 6 4 4 4 1 2 5 7 10 11 11 12 12 12 13 15 16 17 18 19 20 21 22 24 26 28 29 28 28 32 33
9 12 14 13 10 8 8 8 7 8 11 10 11 16 20 19 16 12 10 11 8 10 10 7 5 5 6 7 8 7 5 5 4 3 2 2 1 2 3 2 5 6 5 8 10 9 12 16 18 20 21 20 20 21 21 22 25 26 28 28 26 29 34
7 9 10 12 11 9 5 4 10 13 8 6 10 12 21 23 17 11 11 13 10 7 6 5 4 3 5 8 8 7 6 5 4 2 1 2 2 2 3 2 5 8 7 5 4 3 2 2 5 12 19 21 20 21 21 21 23 24 26 27 26 25 31
6 7 11 11 7 8 9 9 14 14 6 5 11 8 8 12 9 8 8 10 10 7 4 4 5 5 6 8 6 4 3 1 2 3 2 3 5 2 4 8 9 8 8 7 6 6 7 6 6 5 11 16 18 20 21 21 23 23 23 26 26 25 28
5 5 9 9 4 8 11 10 13 11 6 5 8 3 1 1 5 9 6 6 7 8 7 6 7 5 4 5 4 1 2 3 5 5 5 10 13 11 11 11 11 11 10 9 8 7 7 6 6 8 8 11 13 17 21 21 21 22 22 24 26 25 25
5 5 6 9 9 9 8 9 12 8 4 4 6 1 4 3 3 2 6 6 4 3 7 7 8 6 3 3 3 3 5 8 11 12 12 13 12 11 11 11 12 13 11 8 8 7 8 7 8 9 10 11 11 8 16 22 21 21 22 23 24 24 24
7 6 5 7 9 6 3 11 15 8 3 3 5 4 4 7 14 10 5 5 8 5 2 5 6 4 4 3 3 8 10 10 11 12 11 12 10 9 10 11 11 10 7 5 6 6 5 6 7 7 8 10 12 10 8 15 20 21 21 22 23 23 22
7 7 6 5 4 2 12 11 10 10 9 8 8 6 2 11 16 16 13 3 8 5 5 5 3 3 3 2 5 9 11 10 11 10 9 10 10 9 10 11 10 8 5 4 4 5 7 9 9 8 8 8 9 10 11 10 15 19 21 21 22 23 22
7 7 8 5 4 5 17 15 7 3 7 13 9 4 2 9 12 13 15 10 10 10 8 5 2 2 5 8 8 10 11 10 10 10 8 9 9 8 10 10 8 7 7 7 7 7 8 9 9 8 7 8 8 9 10 11 11 13 17 21 22 23 24
7 5 7 6 4 7 16 15 17 17 4 7 3 2 4 7 11 14 14 13 14 12 8 6 6 8 10 12 10 11 12 10 10 9 9 9 9 8 9 8 7 8 7 7 7 8 8 8 9 10 8 7 7 8 9 8 9 9 10 18 23 23 23
7 7 7 5 2 6 15 14 13 13 7 2 1 5 7 7 11 12 12 13 13 11 9 9 9 9 11 12 12 12 11 9 10 9 9 10 9 9 9 8 8 9 7 6 6 6 7 9 9 10 12 10 5 6 7 6 7 8 7 12 20 21 21
5 6 4 1 1 5 11 12 8 8 7 4 3 5 6 8 9 9 9 11 12 11 10 8 8 8 10 11 11 12 11 10 11 10 9 10 9 9 10 9 9 9 5 4 6 6 7 9 7 9 13 10 1 1 4 6 2 5 7 7 16 18 17
5 5 3 3 5 5 8 11 8 7 7 6 6 7 6 7 8 8 8 9 11 12 12 10 8 8 9 10 10 11 11 11 11 10 10 10 9 9 10 9 10 10 6 5 6 6 7 8 6 8 12 9 7 7 8 9 8 7 6 4 11 16 15
7 6 4 5 6 5 6 7 8 8 7 7 8 8 6 6 8 8 8 9 10 10 10 11 9 9 9 9 9 10 11 11 11 10 10 10 10 9 10 9 10 10 9 6 7 7 8 9 7 6 9 9 9 8 6 6 7 8 7 2 5 11 12
6 5 2 2 6 7 4 5 7 8 8 7 8 7 6 6 7 8 8 9 9 9 9 9 10 11 11 9 8 9 9 9 10 10 9 9 10 9 9 8 8 8 7 6 6 5 7 9 9 7 6 8 6 4 4 4 3 4 5 3 3 7 8
7 8 8 7 10 12 10 7 7 8 9 8 7 7 7 7 7 8 8 8 8 9 9 9 10 11 12 11 9 8 8 8 8 9 8 8 9 9 7 6 6 7 7 5 5 5 6 6 8 7 5 5 4 3 3 2 0 0 1 2 3 5 7
8 10 11 10 10 11 11 9 8 8 8 8 6 6 8 9 9 10 10 9 8 8 9 9 10 10 11 12 11 9 8 7 7 7 7 9 10 9 6 4 4 5 6 5 4 5 4 4 4 4 3 3 3 3 2 1 1 2 4 5 5 7 8
7 8 9 8 8 8 8 8 8 7 8 9 9 9 9 10 11 11 12 11 10 9 9 9 9 9 9 12 14 12 8 6 6 6 6 8 10 8 5 3 2 2 2 3 3 3 3 5 4 2 2 3 4 5 5 3 2 4 6 6 6 7 5
8 10 11 9 8 8 9 10 10 8 8 10 12 12 11 10 10 11 13 13 13 12 11 10 10 10 9 11 14 14 11 8 6 6 6 6 8 8 5 3 1 2 2 1 1 0 4 6 4 2 2 4 5 5 6 5 5 4 3 5 5 8 9
12 14 14 12 11 10 11 13 13 10 8 9 11 13 14 13 11 11 12 13 13 13 13 12 11 11 11 10 12 14 14 11 8 7 6 7 8 8 5 2 1 2 3 3 3 1 3 5 6 5 6 7 7 7 8 8 10 11 7 3 6 9 10
13 14 14 14 14 13 12 12 13 12 10 9 10 12 13 14 14 13 13 12 12 12 13 13 14 14 13 10 10 12 14 13 10 8 7 7 7 7 4 2 4 4 4 4 5 4 5 7 9 8 7 7 8 9 10 9 9 13 14 10 9 10 9

ECMWFFLT2_925_spd_033.txt.gz
Wind_Speed
15 16 15 13 10 6 6 9 9 6 6 4 3 2 2 2 2 4 5 6 4 4 5 7 11 14 13 11 10 11 20 26 23 18 19 19 18 17 17 17 17 18 18 20 25 27 27 30 33 33 34 36 37 37 38 39 39 39 40 41 41 41 42
18 15 15 15 13 7 7 9 8 5 5 6 2 2 3 4 5 4 7 9 7 6 6 7 12 16 16 14 13 10 16 24 24 20 20 20 19 18 18 18 17 17 18 19 24 29 32 35 37 36 34 34 36 36 38 39 39 39 41 41 41 41 41
16 13 14 14 15 13 8 8 9 6 6 6 4 3 4 6 5 4 8 10 8 8 8 9 12 16 16 15 16 14 13 18 20 19 21 20 19 17 16 16 15 15 17 19 23 29 32 35 36 35 34 34 35 36 38 40 41 42 42 41 41 40 39
15 11 11 11 12 14 10 8 10 8 5 4 5 4 2 4 4 4 6 8 7 7 10 14 16 15 14 13 14 16 14 17 17 16 18 19 18 17 16 15 16 16 17 20 26 30 31 32 33 34 35 36 36 37 37 39 40 41 41 40 40 39 39
15 10 10 12 12 12 10 8 9 8 6 3 5 4 3 3 3 3 5 5 5 6 8 15 17 15 15 12 11 13 14 18 19 19 19 18 18 18 17 16 17 17 17 20 26 30 31 33 34 35 35 36 37 37 38 39 40 40 40 40 40 39 39
11 12 12 13 15 13 11 7 7 10 8 5 6 6 5 5 3 3 4 4 6 5 4 12 17 14 14 13 10 10 13 17 20 20 19 19 18 18 18 18 17 17 16 17 21 27 29 30 32 34 35 35 36 37 38 39 39 40 41 41 41 40 39
8 13 16 16 17 16 13 9 7 9 10 7 6 5 6 6 5 5 3 3 6 7 6 10 16 12 11 13 11 8 10 14 19 21 19 18 18 18 18 18 17 16 16 16 20 24 27 28 29 33 34 34 36 37 38 38 38 40 41 41 42 41 40
8 8 12 17 17 15 12 11 9 7 10 10 6 4 6 5 5 6 3 3 5 8 7 4 12 12 11 10 9 9 8 11 18 22 19 17 17 19 19 17 16 15 15 16 17 19 22 26 29 31 32 32 33 34 35 36 38 39 40 41 41 42 41
6 6 6 13 15 14 9 9 12 10 10 14 9 3 4 5 6 7 3 3 5 7 7 7 9 12 12 9 9 9 9 11 18 21 19 18 17 18 20 17 15 16 15 15 15 15 18 24 27 29 30 30 30 32 33 33 35 38 39 40 40 41 42
4 4 5 8 11 11 8 9 15 14 12 15 12 5 3 4 7 8 5 3 5 6 6 8 7 8 10 9 7 6 7 10 15 17 18 19 18 18 20 19 17 16 15 15 16 15 17 22 25 28 30 30 30 31 32 32 33 36 37 38 38 40 41
4 5 5 7 13 13 9 11 15 17 16 13 11 7 4 5 6 6 6 5 3 5 3 3 3 4 6 6 6 6 7 9 11 14 15 16 16 18 20 19 18 17 16 17 18 17 18 21 24 27 29 30 30 30 32 33 33 34 36 37 38 39 40
8 11 11 5 11 16 16 15 13 17 20 17 10 9 7 6 8 5 7 8 6 4 4 4 4 5 8 9 9 8 7 8 9 14 18 17 14 16 18 18 18 18 16 16 17 16 16 21 25 26 29 31 31 31 33 34 34 34 35 37 37 38 38
11 12 14 10 4 6 12 17 16 15 21 21 14 10 9 8 8 6 8 10 8 6 6 5 4 7 10 10 10 9 7 9 9 12 18 16 13 14 16 17 17 17 16 15 14 14 15 19 23 25 27 30 31 32 32 34 35 35 35 37 37 37 38
11 10 11 12 7 1 2 11 15 11 16 23 18 10 9 9 7 7 10 10 5 4 3 4 5 9 10 8 10 10 9 11 12 13 15 15 13 13 14 15 15 15 15 15 14 14 14 16 21 24 25 28 31 31 31 33 35 34 35 36 37 38 38
6 7 11 15 8 1 2 3 7 4 7 19 20 13 10 8 7 7 9 10 3 2 9 11 9 9 11 10 10 11 10 10 11 12 12 13 13 13 12 12 12 12 13 13 14 14 14 16 20 22 23 27 30 30 30 32 34 35 35 36 38 39 38
3 3 8 14 9 5 6 4 2 3 3 9 16 13 9 6 8 8 9 10 4 3 10 11 8 10 12 13 12 12 10 10 12 13 11 11 11 11 10 10 10 10 11 12 13 13 13 16 20 22 23 25 28 29 30 31 33 35 34 34 36 39 38
4 4 7 9 8 6 7 3 0 2 4 4 10 14 12 6 7 7 6 6 7 6 10 10 10 12 11 11 10 10 10 10 12 12 11 9 9 9 9 9 9 9 9 9 10 12 13 16 20 22 24 24 26 29 31 31 31 33 34 33 33 36 38
5 8 8 5 4 4 3 0 1 2 6 6 3 5 10 7 4 6 8 6 4 9 11 9 11 12 10 9 9 9 9 9 10 12 12 9 7 8 9 9 7 7 7 6 6 9 13 15 17 19 21 21 24 28 30 31 31 31 33 32 31 33 37
5 7 5 2 1 5 2 2 4 7 8 5 9 14 10 8 7 3 14 13 6 9 12 10 10 11 11 11 13 14 13 12 12 13 13 13 12 11 11 11 9 8 8 8 7 8 8 7 9 14 18 19 20 23 25 27 29 30 32 32 30 31 34
4 3 1 2 3 6 1 6 10 14 11 6 6 15 17 18 18 11 6 13 11 12 13 11 10 11 13 15 15 16 17 16 14 13 12 13 15 13 11 11 10 8 9 10 9 10 11 10 6 3 9 15 19 21 22 23 24 27 29 31 31 30 32
3 3 3 3 3 5 2 7 11 12 11 8 3 9 11 18 20 18 10 5 12 14 14 12 11 13 15 14 12 14 16 15 14 13 12 12 13 12 11 11 11 12 14 14 13 12 13 12 11 10 6 4 10 14 19 23 23 23 25 27 29 29 30
3 4 3 2 2 2 4 11 17 16 15 12 3 12 10 17 19 20 15 8 9 11 12 12 11 13 14 10 8 10 13 12 13 13 12 12 11 10 11 10 12 15 15 13 14 15 15 14 13 12 13 9 4 4 9 17 24 25 23 24 27 27 28
3 3 2 2 1 1 8 17 20 19 20 14 3 11 8 13 17 18 17 16 14 11 11 12 11 11 10 6 5 8 10 11 12 11 11 11 10 10 12 12 11 15 16 15 16 17 16 16 15 13 14 12 8 6 6 7 15 22 25 26 26 27 27
4 3 2 2 1 3 12 18 18 20 19 11 4 8 4 10 14 15 16 17 17 14 13 14 12 9 7 5 5 7 9 11 12 12 11 11 10 11 13 15 16 17 18 17 16 16 15 15 14 14 15 15 12 9 8 7 6 13 21 26 29 28 27
4 4 3 2 1 4 13 17 18 20 15 4 7 6 2 8 10 12 15 16 15 14 12 11 10 8 7 7 8 10 11 12 12 12 12 13 14 15 15 16 17 17 17 16 14 13 14 15 14 15 16 16 16 13 10 9 8 8 11 20 28 29 28
3 2 3 3 0 6 15 16 17 17 9 4 4 1 4 7 8 11 14 14 14 13 12 10 9 8 9 11 12 13 13 13 12 13 12 12 14 16 16 16 16 14 12 12 12 12 14 15 14 15 16 17 18 15 10 8 9 8 8 14 26 30 29
2 1 3 3 1 7 17 15 13 13 8 2 1 2 4 8 11 11 11 12 13 13 11 11 10 9 10 11 12 12 12 12 12 12 12 12 11 13 14 14 16 16 10 8 10 12 12 12 13 13 14 17 17 11 6 9 8 6 5 7 22 29 29
3 2 2 2 1 6 10 9 7 8 6 2 1 2 5 8 10 9 9 11 13 12 11 11 10 10 11 10 10 11 10 10 11 10 10 11 10 11 13 13 16 17 12 7 9 11 11 12 12 11 12 14 12 7 7 11 10 7 6 2 13 24 27
1 1 2 2 4 5 5 5 4 5 8 7 5 6 5 6 7 7 7 9 12 12 11 10 10 11 12 11 11 10 9 9 10 10 9 10 11 12 13 12 13 15 14 9 8 8 10 12 13 12 10 10 10 9 8 10 9 8 9 5 7 18 22
2 2 5 2 3 6 6 5 3 4 5 7 6 6 6 5 6 6 7 8 10 11 11 10 10 10 12 13 13 12 10 9 9 9 9 10 12 14 14 11 11 13 14 11 8 8 9 11 13 14 12 10 10 10 8 9 8 7 9 7 5 13 17
3 2 3 5 7 8 6 5 4 3 3 4 5 5 4 4 5 6 8 8 8 9 10 10 10 10 11 12 12 11 10 9 8 8 8 8 10 13 13 10 9 11 11 10 9 9 8 9 11 13 12 10 10 9 7 8 8 5 6 7 6 10 13
4 4 6 9 9 7 5 3 3 4 4 5 5 5 4 4 5 7 9 8 7 8 9 9 10 10 10 10 10 9 9 8 7 7 7 7 9 14 16 11 6 6 9 8 7 7 7 9 11 13 11 8 8 7 7 7 7 4 3 4 5 8 11
5 4 5 8 7 6 7 7 6 7 8 6 6 6 6 5 6 7 7 8 7 7 7 8 8 8 8 8 8 8 8 8 8 7 7 8 10 13 18 14 5 2 6 6 5 7 9 10 14 15 12 8 7 7 7 7 7 4 2 0 3 5 8
5 6 8 10 8 7 9 9 9 10 10 8 7 6 5 6 5 5 5 6 7 6 6 6 6 6 6 7 8 8 7 7 9 8 8 10 11 13 18 16 6 1 3 4 4 6 9 13 16 16 12 8 6 8 10 10 8 4 2 1 2 4 5
6 9 11 11 8 7 9 11 12 10 8 8 9 7 5 6 6 4 4 5 6 5 5 5 5 6 6 6 7 8 7 7 9 11 11 11 11 12 15 16 8 2 2 3 4 6 9 14 17 14 11 10 12 13 13 12 11 8 4 2 7 9 9
10 11 12 12 11 10 10 12 14 12 8 7 8 7 5 5 6 5 4 4 5 5 5 5 6 7 7 7 7 7 7 7 9 12 14 15 15 14 13 13 10 6 3 3 6 9 11 15 19 19 20 20 19 17 15 13 13 11 9 9 12 15 14
11 12 13 13 14 15 14 11 11 11 10 8 8 7 5 4 4 5 5 4 3 4 5 5 7 8 8 7 7 7 7 8 9 10 13 15 16 15 13 9 6 7 6 7 9 10 11 14 17 20 22 23 21 18 16 15 15 15 15 15 15 16 16

ECMWFFLT2_925_spd_036.txt.gz
Wind_Speed
13 14 13 13 11 7 6 9 9 7 6 6 4 4 1 5 4 5 3 3 4 2 5 6 5 5 8 10 10 15 18 18 19 18 18 18 18 18 19 18 19 20 19 22 26 29 31 33 34 37 39 42 43 42 42 42 41 41 42 42 42 43 42
16 14 12 13 13 8 6 9 9 6 5 4 4 2 2 3 4 4 4 6 4 3 4 7 7 7 8 9 11 15 17 18 19 19 18 19 19 19 20 20 19 19 19 21 26 30 33 35 38 40 42 42 43 43 43 42 41 41 42 42 41 41 40
14 13 12 11 13 13 10 8 8 7 5 6 5 4 4 4 4 3 5 7 5 5 5 6 8 11 11 10 11 15 18 18 19 19 20 22 21 19 18 18 17 17 18 20 26 31 34 38 40 40 40 39 39 40 41 42 43 43 44 43 42 41 41
10 11 10 9 12 14 10 7 9 8 5 5 5 4 4 4 4 4 3 4 5 5 6 9 12 14 14 12 11 15 19 20 18 18 19 20 20 19 18 17 17 18 19 22 28 33 35 38 38 36 36 37 37 39 40 41 43 43 42 42 41 40 41
5 8 9 12 13 11 8 8 10 9 4 3 4 3 3 5 3 4 4 3 6 7 7 12 15 14 15 14 12 15 19 21 21 20 19 18 18 18 18 17 17 18 18 21 29 33 35 35 34 34 35 37 38 38 39 41 41 40 41 42 41 41 40
6 7 8 14 15 10 8 7 8 10 6 5 6 5 4 4 4 4 5 4 7 8 7 11 15 14 15 16 13 14 18 23 22 21 21 20 19 18 19 18 17 18 17 19 25 29 29 29 31 33 35 36 36 38 39 40 40 40 42 42 42 41 40
9 13 11 11 15 13 9 7 7 10 8 6 8 7 5 5 4 3 3 3 6 7 7 10 14 14 15 17 13 12 17 21 22 21 21 20 20 19 20 19 17 17 17 19 23 26 27 28 31 33 34 34 36 38 39 38 39 40 42 43 43 42 40
9 14 13 8 12 14 10 7 7 9 10 9 7 6 6 5 5 4 2 4 7 7 5 8 12 14 14 15 14 14 17 19 20 21 20 19 20 20 19 18 16 15 15 17 18 20 22 26 29 32 33 34 35 35 36 37 38 40 41 41 41 41 40
4 7 8 6 8 11 10 8 9 12 14 12 6 4 5 4 7 7 4 4 8 7 5 4 8 13 14 14 13 15 18 18 18 19 19 19 19 18 17 16 15 15 15 15 15 15 20 25 28 31 33 33 32 33 34 35 36 38 39 38 38 39 40
4 5 4 3 3 6 8 11 14 14 15 15 8 4 5 4 7 7 5 6 9 8 8 9 6 11 14 11 10 13 17 20 19 18 18 18 17 17 18 18 16 16 15 16 15 15 19 25 27 30 31 32 31 32 33 35 35 36 37 38 38 38 38
7 7 8 9 8 7 9 15 17 14 14 15 10 5 5 6 5 5 8 9 8 9 8 10 7 4 10 9 9 11 15 19 19 17 17 17 16 16 18 17 16 16 15 16 17 17 20 25 28 29 31 31 31 32 33 35 36 36 37 38 38 38 38
13 13 16 17 13 11 13 16 18 15 13 14 12 9 7 6 6 5 9 8 7 9 9 8 7 1 7 9 10 11 14 17 18 18 18 19 18 17 17 17 17 17 16 16 17 16 19 24 27 28 30 31 32 33 34 35 36 36 37 38 38 38 38
20 17 16 16 11 10 11 13 19 17 15 15 14 11 8 8 8 8 9 8 9 9 8 7 6 2 3 6 9 11 14 16 18 19 20 20 19 19 19 19 18 18 17 16 16 16 18 22 24 26 28 30 32 32 33 35 36 37 38 38 38 38 38
20 15 11 10 8 8 9 8 19 19 16 16 13 9 9 8 8 9 7 7 7 6 6 5 2 1 1 1 4 7 12 17 17 19 20 20 19 19 19 19 18 17 17 17 17 17 16 19 23 25 26 29 31 31 32 34 35 37 37 37 37 37 37
11 9 9 9 9 7 7 2 10 14 15 17 13 9 8 6 4 4 6 5 1 4 4 1 4 6 5 4 6 7 10 15 18 18 19 19 19 18 17 16 15 14 15 15 16 16 16 19 24 26 27 29 30 30 31 33 35 36 36 36 36 36 37
7 9 12 13 13 5 10 13 9 1 8 11 7 3 2 0 2 6 8 6 2 2 1 7 9 9 10 8 7 7 6 10 16 19 19 18 18 18 17 16 14 14 14 14 16 16 17 21 25 27 28 29 29 30 31 32 33 35 35 35 36 36 37
7 10 14 15 12 5 9 11 14 9 7 12 10 10 13 10 1 5 5 5 4 3 5 12 12 12 13 10 7 6 6 7 9 11 12 12 12 13 14 14 13 13 12 12 14 16 18 23 27 29 31 30 30 32 33 33 33 33 33 34 35 36 37
7 12 15 12 5 5 4 3 10 13 13 19 18 13 15 15 9 4 2 2 3 2 8 15 14 13 13 11 11 11 9 10 11 10 10 9 9 8 8 8 7 7 7 7 9 12 17 22 26 29 30 31 32 33 33 32 32 32 32 32 33 35 36
6 9 8 2 2 3 3 1 10 14 10 13 17 18 18 19 16 14 11 8 8 6 10 16 15 14 15 16 18 17 13 11 13 14 13 12 13 12 10 10 9 7 7 7 7 8 11 16 18 21 24 26 27 28 29 30 30 31 32 31 32 33 35
4 5 3 2 4 2 3 5 12 17 13 12 14 17 19 20 18 16 12 9 8 6 8 13 13 15 18 19 18 17 15 14 13 13 13 13 14 13 10 10 9 8 9 11 11 12 11 10 10 13 18 22 23 25 27 29 29 30 31 31 31 32 34
2 3 3 2 4 4 6 8 12 13 10 10 8 8 12 16 17 15 12 10 10 8 6 5 6 14 20 17 13 15 15 14 13 13 13 13 14 13 12 13 13 14 16 17 17 19 20 18 13 8 8 15 21 24 26 28 29 30 30 30 31 31 33
4 4 3 3 3 2 5 11 15 14 10 11 9 1 9 14 17 16 13 11 12 11 10 9 4 11 20 13 8 11 13 13 13 13 13 14 14 13 12 14 16 18 20 21 21 22 23 22 20 17 12 8 10 13 16 21 24 26 27 29 31 31 32
4 4 2 3 2 1 7 16 20 19 15 12 8 2 8 12 16 16 14 13 13 12 11 10 6 11 15 8 4 8 10 11 12 12 13 13 13 14 15 16 16 17 20 22 23 24 23 21 19 18 15 13 10 7 3 6 14 20 23 27 30 32 33
5 4 2 1 1 2 11 17 19 21 18 9 1 6 6 10 14 14 13 14 14 12 10 10 12 12 9 6 4 6 8 10 11 11 12 12 12 13 17 18 18 20 23 23 21 21 20 19 19 19 16 14 13 11 8 4 2 9 15 21 27 32 34
4 4 1 1 1 3 12 18 20 21 15 4 6 6 2 7 11 12 13 14 13 12 11 10 11 9 7 6 6 8 10 11 11 11 11 13 14 15 18 20 21 20 21 22 20 20 21 21 20 19 17 15 14 12 9 7 6 4 6 10 17 25 30
3 3 1 1 1 4 14 18 17 14 6 5 6 3 2 6 9 9 12 14 12 12 12 11 9 9 9 9 9 10 11 11 11 11 11 13 15 16 19 22 22 20 18 18 19 20 22 22 21 20 18 15 13 11 9 8 9 7 6 8 10 16 25
3 2 3 3 1 5 14 15 12 11 7 4 0 1 3 6 8 8 10 12 12 12 11 11 11 11 12 12 10 10 10 10 10 11 10 10 11 12 15 18 20 20 17 16 17 19 20 20 20 20 19 16 14 12 11 11 11 9 8 8 9 12 20
2 3 4 3 2 2 7 8 5 5 4 2 1 2 4 5 7 7 8 9 11 12 11 11 11 11 11 12 11 10 10 10 10 10 10 10 10 10 12 14 17 19 16 14 17 19 19 19 19 20 19 17 15 14 13 13 13 12 11 9 8 10 16
2 1 2 3 1 2 0 2 3 6 7 5 5 5 5 5 5 6 7 9 11 12 11 10 10 10 10 10 10 10 10 9 9 9 10 11 12 13 16 17 18 18 17 16 16 16 18 18 17 18 19 17 15 14 14 15 14 13 13 12 9 9 14
3 0 3 8 9 4 2 3 6 8 9 7 5 5 5 5 6 6 7 8 10 11 11 10 9 9 9 9 9 9 10 10 11 10 10 11 14 15 17 19 20 19 18 17 15 15 17 18 18 18 17 16 16 16 15 14 14 12 13 14 11 9 13
5 2 6 11 11 7 6 8 9 9 9 9 9 7 4 5 5 5 6 6 8 9 9 9 8 9 9 10 10 9 10 10 11 12 11 11 13 14 16 19 20 16 15 14 13 13 16 18 19 19 16 15 16 17 14 12 12 12 11 13 12 8 13
6 3 6 12 12 6 3 7 7 7 9 11 11 10 6 5 4 3 4 5 4 6 6 7 8 8 9 10 9 9 9 10 10 10 10 11 13 16 19 22 21 15 11 11 12 12 15 18 20 18 15 14 14 14 11 9 10 11 10 11 11 6 10
4 3 8 15 15 9 6 8 8 7 9 10 10 11 10 7 5 4 4 4 3 2 3 4 5 7 8 8 9 8 8 8 8 9 10 11 13 16 18 20 21 16 10 10 12 13 14 17 19 18 17 16 14 13 12 10 9 9 7 8 9 6 5
4 4 7 10 9 8 10 14 13 10 10 11 9 8 10 9 6 5 6 5 4 3 4 3 4 5 6 7 8 8 7 7 7 8 9 11 13 15 17 19 21 19 12 10 12 14 14 16 18 19 18 17 15 15 14 12 10 8 7 6 6 4 1
8 9 7 5 5 8 11 15 16 13 11 11 11 9 7 8 8 6 7 7 7 5 5 4 4 5 5 6 6 6 7 7 8 9 11 12 12 14 17 17 16 16 13 10 12 14 13 13 15 17 17 17 16 15 14 12 10 7 4 3 3 3 3
11 11 9 7 7 11 13 14 16 15 11 9 11 11 7 6 7 6 5 7 8 5 4 5 5 5 5 5 6 6 6 8 9 10 13 15 14 14 16 16 14 11 9 9 11 12 11 12 13 14 15 16 15 14 14 12 11 9 8 8 8 8 6
11 12 11 10 11 13 14 13 14 15 13 10 11 11 8 5 6 6 4 5 6 6 4 5 7 8 6 5 6 7 7 9 11 11 12 16 17 14 14 16 14 7 3 5 8 9 9 10 11 12 13 14 14 13 13 13 13 13 13 12 11 11 10

ECMWFFLT2_925_spd_042.txt.gz
Wind_Speed
7 5 6 9 11 6 4 7 9 6 5 5 3 4 1 3 5 6 3 4 4 2 7 5 3 7 10 13 14 14 15 13 10 11 13 15 15 15 15 15 16 17 16 20 25 28 30 32 34 37 39 40 41 40 39 40 39 39 40 40 40 40 39
8 8 8 8 12 8 4 7 8 5 6 4 5 4 2 3 7 5 2 6 5 4 6 4 5 7 8 11 12 13 14 10 11 13 14 16 17 17 17 17 17 16 16 19 25 30 33 35 37 38 39 40 40 39 39 39 39 39 40 41 40 40 39
9 10 7 6 9 10 7 6 8 7 5 7 6 5 6 6 5 4 3 4 5 6 6 4 8 10 9 10 11 12 13 11 12 13 14 16 17 16 16 16 15 14 15 18 24 29 32 35 36 37 38 38 38 39 39 40 40 41 41 40 40 39 39
9 7 2 4 7 11 9 5 7 7 5 6 6 4 3 4 4 4 3 2 4 6 6 8 11 12 11 11 10 11 13 12 12 13 13 14 15 15 15 15 14 15 16 20 27 30 32 34 35 35 36 36 37 38 38 38 39 39 39 39 39 38 38
6 4 3 4 4 5 6 5 6 7 4 2 4 3 2 4 4 3 3 3 5 5 5 9 12 12 12 13 12 12 12 12 13 13 13 13 14 15 16 16 15 17 17 21 28 31 30 31 31 32 34 36 37 37 37 38 38 38 38 39 38 38 37
3 6 6 4 2 2 3 4 5 8 5 3 5 5 3 4 4 4 3 4 6 5 4 8 11 11 12 13 13 12 12 13 14 13 14 14 15 16 17 17 17 17 17 19 24 28 27 27 29 33 35 36 36 37 37 37 37 38 39 39 38 38 37
7 16 18 13 9 6 5 5 4 5 4 5 6 7 4 3 3 3 2 4 7 6 6 8 9 10 11 12 13 12 11 12 13 14 15 15 15 16 17 17 17 16 17 18 21 25 28 30 32 34 35 35 36 37 37 37 37 38 39 39 39 39 38
7 14 14 8 5 3 2 3 3 3 3 4 6 5 4 4 4 3 4 8 8 5 5 7 8 8 7 7 10 11 11 10 10 13 14 13 14 16 16 16 15 15 14 14 16 19 24 28 29 31 33 34 35 36 36 37 38 39 39 39 39 38 38
4 7 5 1 3 4 2 4 5 4 6 6 3 2 3 3 7 8 6 8 8 3 1 2 4 5 4 4 6 8 9 8 9 10 11 12 14 14 15 15 15 14 13 13 13 15 21 26 28 30 32 33 34 36 37 38 38 39 39 38 38 38 38
4 5 3 2 2 5 4 6 8 7 7 7 5 2 3 5 7 8 7 9 8 1 2 1 0 3 5 5 5 5 7 8 7 8 10 11 12 14 15 16 15 14 14 14 15 16 20 26 28 30 32 33 34 35 37 38 38 38 38 37 36 37 37
5 4 3 3 3 5 7 10 13 12 8 6 4 3 5 6 4 5 7 10 8 6 4 4 4 5 6 6 6 5 7 9 8 8 10 11 12 14 15 14 14 14 14 16 17 17 21 26 29 30 32 33 34 35 36 37 37 36 36 36 36 36 36
9 8 9 8 6 7 10 11 13 14 12 8 5 6 6 3 5 7 8 5 7 12 9 4 4 7 7 6 8 8 8 10 10 10 11 13 14 14 13 13 14 16 16 17 17 17 20 25 28 29 31 32 34 34 35 35 35 35 36 36 36 36 36
10 10 11 12 9 9 10 10 12 15 14 11 9 9 8 4 6 9 6 5 9 11 6 4 2 5 7 8 9 8 8 9 11 11 12 14 16 15 14 14 16 17 17 17 17 18 19 23 26 27 28 30 31 32 33 34 35 35 36 36 36 36 35
10 11 12 12 9 7 8 9 10 11 13 13 11 11 10 10 10 8 6 9 10 4 5 7 6 5 5 6 5 6 8 10 11 13 14 15 16 15 15 16 16 17 18 18 18 17 17 20 25 26 27 29 31 32 33 34 35 36 36 36 36 35 35
8 9 8 7 7 7 7 6 6 9 11 8 6 7 6 6 8 9 8 10 8 4 6 6 6 5 4 5 8 8 8 9 11 13 14 14 15 15 15 17 16 17 17 16 16 17 17 21 26 28 28 30 32 31 32 34 35 35 36 36 35 36 36
5 5 4 4 6 6 6 2 8 12 11 8 3 1 4 3 4 5 6 6 5 6 8 6 6 8 10 11 12 11 10 10 9 11 11 13 15 15 16 16 15 15 15 16 17 17 18 22 26 28 28 29 29 31 33 34 34 34 35 35 35 35 36
4 5 4 7 5 4 4 1 6 8 8 8 6 6 10 8 3 2 2 4 5 7 7 7 9 11 12 11 10 10 11 13 10 8 9 10 12 15 16 16 15 16 15 16 18 19 20 25 30 31 32 32 32 33 34 33 33 33 33 33 33 34 34
4 6 6 5 4 4 4 3 5 7 6 8 8 8 12 13 8 5 4 5 8 9 7 6 7 8 10 9 9 10 11 12 11 8 7 8 8 9 11 13 14 15 14 14 16 20 25 28 30 32 32 30 29 29 30 31 31 32 32 31 31 32 33
4 6 4 3 6 4 5 7 8 9 4 6 8 7 14 18 16 13 12 11 12 12 8 7 5 3 5 7 10 14 14 12 12 9 5 6 7 7 7 10 12 12 13 12 13 17 23 25 26 27 27 26 25 27 29 31 31 31 31 31 31 33 33
2 3 2 4 4 2 4 5 9 10 5 7 10 7 14 19 17 15 15 13 14 13 10 8 5 4 2 5 10 15 17 15 13 11 7 2 6 8 8 9 10 11 12 14 16 19 22 25 26 26 26 26 27 28 30 30 30 31 31 31 32 33 33
2 2 3 2 2 2 3 3 5 7 5 8 8 3 8 14 15 14 14 14 15 14 12 11 7 4 2 6 11 15 18 18 15 12 10 6 2 6 7 7 8 10 14 17 19 22 24 26 27 27 27 28 28 27 28 28 29 30 30 31 32 32 33
1 2 3 1 2 3 1 2 6 8 8 9 8 3 2 10 15 16 14 14 16 15 14 15 11 4 4 8 8 12 17 17 16 13 12 10 7 5 7 10 12 15 18 21 22 25 25 24 25 28 28 28 28 26 26 27 28 28 29 30 31 31 33
2 2 2 1 2 3 1 8 12 13 11 8 5 4 2 10 15 16 15 15 16 15 15 16 11 5 6 5 6 11 14 14 13 12 12 12 11 9 8 9 12 17 22 24 24 25 25 24 26 29 30 29 27 25 25 27 27 26 28 30 31 32 34
4 4 2 2 1 1 6 12 14 15 12 5 3 3 3 9 12 13 14 15 16 15 14 13 10 8 6 4 7 10 12 11 12 12 12 12 12 11 12 12 12 16 21 22 21 21 23 26 29 32 32 30 27 25 25 26 25 26 29 32 33 34 35
5 5 2 1 0 2 9 13 14 15 10 2 3 2 2 6 10 11 12 13 14 14 13 10 8 7 6 6 9 10 10 13 14 13 13 15 15 15 15 16 15 16 17 17 17 16 19 25 30 32 32 28 24 24 25 24 25 28 32 33 33 34 34
3 2 1 0 2 3 12 13 12 11 5 3 3 4 3 7 11 11 11 12 13 14 13 9 7 8 9 9 9 11 13 14 13 14 14 16 17 17 18 19 18 16 16 17 17 15 15 21 27 30 29 25 21 22 22 21 24 27 29 31 32 33 33
2 0 1 1 1 5 14 13 8 8 7 3 3 5 6 9 12 12 11 11 11 13 13 10 9 10 11 12 13 14 14 14 13 14 16 15 15 14 15 17 17 15 14 15 17 17 16 19 23 27 27 22 20 20 18 17 20 22 23 26 28 29 30
2 2 3 3 2 5 11 9 5 6 6 4 5 7 7 8 9 10 10 11 12 13 13 12 11 11 13 15 16 14 14 15 13 13 15 16 15 13 14 16 18 17 14 14 17 19 19 21 22 25 27 25 22 20 18 17 18 18 18 19 21 24 28
3 2 3 3 2 4 7 5 4 5 6 7 8 8 6 7 8 8 9 12 14 14 13 13 12 11 13 14 14 13 12 12 12 13 14 15 15 15 15 17 18 17 15 15 17 18 20 22 23 24 26 26 22 18 16 17 17 16 15 15 14 15 19
4 0 4 4 5 7 7 4 2 5 6 7 9 9 7 7 8 8 9 11 13 13 13 13 12 11 12 13 13 13 12 11 12 12 13 14 16 17 16 16 16 16 16 16 16 17 18 20 22 23 24 24 22 18 16 15 15 13 12 11 10 9 9
5 1 5 8 11 11 8 3 2 5 6 7 8 8 7 7 8 9 9 11 13 12 11 11 12 12 12 13 14 14 12 11 11 11 11 13 14 15 16 16 16 15 15 14 14 15 15 16 19 22 22 22 20 18 16 14 12 10 10 9 7 7 5
5 1 6 12 12 8 2 3 3 5 7 10 11 10 9 8 8 9 9 10 10 11 11 10 11 13 12 11 13 14 12 10 10 9 9 11 13 16 18 18 16 15 13 12 12 12 12 13 16 19 19 18 17 16 15 13 11 9 8 7 6 5 4
4 2 8 14 11 6 7 7 7 9 9 11 13 14 13 12 10 9 9 9 9 10 11 10 9 12 13 10 11 13 13 10 8 8 9 11 13 16 18 18 15 13 12 11 11 11 10 13 17 17 17 16 15 15 14 12 10 10 9 7 6 4 2
4 5 10 12 8 5 6 9 11 12 11 12 13 15 15 13 11 9 9 10 10 9 10 9 7 9 12 10 9 10 13 12 8 7 9 12 14 16 18 18 17 14 11 10 11 10 10 14 17 18 17 16 15 15 14 12 11 10 9 9 8 6 4
7 9 11 10 7 8 10 11 11 12 11 11 13 15 15 14 12 9 8 9 10 9 10 10 7 7 9 11 8 6 11 16 15 10 9 11 13 15 16 16 16 15 13 10 10 10 10 14 17 17 17 17 16 15 14 12 11 10 9 10 10 8 7
9 10 11 10 9 10 12 13 14 13 10 10 12 14 14 13 12 10 9 9 9 9 9 8 9 8 9 11 9 5 7 17 21 16 12 12 13 16 16 15 14 15 13 9 7 8 10 13 15 16 16 16 15 14 13 11 11 10 11 12 11 10 9
9 9 11 11 10 11 11 11 11 11 11 11 12 12 13 14 12 10 9 8 8 10 9 6 8 12 10 10 11 9 7 14 23 21 14 13 15 17 18 18 16 15 13 10 5 7 10 12 14 14 15 14 14 13 12 11 10 11 12 13 13 11 10

ECMWFFLT2_925_spd_045.txt.gz
Wind_Speed
4 1 5 4 8 8 7 11 13 10 9 9 8 6 3 4 9 7 7 9 6 4 10 9 6 7 13 17 18 19 19 15 13 12 13 15 16 17 17 17 19 20 20 23 27 28 29 31 34 36 35 35 35 33 33 34 33 33 35 36 36 35 35
3 3 5 7 9 7 5 10 12 8 7 9 8 7 5 7 10 6 6 11 10 6 8 8 10 10 12 15 16 18 19 15 14 14 14 16 18 18 19 20 19 19 20 23 27 30 32 35 36 36 35 34 34 34 34 35 34 34 36 36 35 34 35
3 4 4 7 10 11 9 7 9 9 8 10 9 7 8 9 9 6 6 9 10 9 7 5 11 15 14 13 13 16 17 15 14 15 15 17 18 17 17 18 17 17 18 22 28 31 33 35 34 34 34 34 34 35 35 36 36 36 36 35 33 33 34
5 2 5 9 10 12 12 8 8 9 8 8 10 8 7 7 7 7 6 7 8 9 8 7 10 15 16 14 11 12 14 14 14 14 14 15 16 15 16 16 17 18 20 24 30 33 34 34 33 32 34 35 35 36 35 34 35 35 35 35 33 33 33
6 4 6 8 6 6 9 9 10 12 8 4 7 9 8 7 7 6 6 7 7 4 5 10 13 13 16 16 11 10 12 13 14 14 14 14 15 16 16 16 18 20 21 25 31 33 32 32 30 31 33 34 34 34 34 35 34 34 35 35 33 34 34
6 4 2 2 2 2 2 4 7 10 10 7 8 10 10 9 8 7 6 7 7 3 3 8 13 13 14 16 14 12 11 13 14 14 15 15 15 16 17 18 19 19 20 23 28 30 29 29 30 33 34 34 35 35 35 35 35 34 35 35 33 33 33
9 11 9 5 3 3 3 4 5 6 7 9 10 9 8 10 10 8 7 8 7 4 3 5 9 10 11 12 13 12 12 12 12 13 15 16 15 16 18 18 18 18 18 21 24 27 30 31 33 35 34 34 36 37 36 35 35 35 36 35 33 33 33
9 14 11 4 3 4 4 4 4 4 5 5 6 6 4 7 11 9 8 9 7 4 3 4 8 8 8 8 8 10 10 8 8 11 14 15 15 16 17 17 17 16 16 18 18 21 26 28 29 33 33 33 35 35 35 36 36 36 35 34 32 33 34
6 9 7 4 4 3 1 1 1 2 5 7 7 5 3 6 11 12 10 8 6 3 3 4 10 9 7 9 8 7 7 5 4 5 7 10 11 13 15 16 16 16 16 15 15 16 20 24 27 30 32 33 34 35 36 36 35 35 35 33 32 32 34
7 7 5 3 1 0 0 1 2 2 3 5 5 3 4 6 9 12 11 7 5 3 3 7 11 9 7 7 6 5 6 7 5 4 4 6 7 9 13 15 15 15 14 14 14 14 19 25 28 29 30 32 33 34 35 35 34 35 34 33 32 32 33
8 5 2 3 5 5 4 4 4 3 1 2 3 3 5 4 5 9 8 5 6 6 6 6 6 5 6 5 3 3 2 3 4 4 3 5 7 9 11 12 12 12 12 13 14 15 21 28 30 30 31 32 32 32 34 34 33 33 33 32 31 31 32
13 12 10 9 9 9 9 9 8 6 3 3 3 5 4 4 4 7 5 5 8 6 2 3 6 6 7 6 6 6 6 6 6 6 5 5 8 10 11 11 11 12 12 13 15 16 22 27 29 30 31 32 32 31 33 33 32 32 32 31 31 32 32
15 16 13 10 10 11 11 11 12 10 7 6 6 9 8 5 5 5 2 2 4 1 4 6 8 9 9 10 9 8 8 8 8 8 9 8 9 11 13 13 13 14 15 15 15 17 21 25 28 29 29 30 29 29 31 32 32 32 31 31 32 31 31
15 16 13 11 12 14 14 14 14 11 8 8 7 9 11 10 8 8 10 8 1 3 5 8 8 8 9 8 8 8 8 9 10 10 11 11 11 11 13 15 15 16 17 17 16 16 18 22 27 28 28 29 29 30 32 33 32 32 31 31 32 32 32
12 14 12 12 13 14 14 13 12 9 6 4 3 2 4 6 7 8 12 11 2 3 6 7 7 7 6 6 8 9 8 10 11 11 11 12 13 13 12 15 16 16 17 16 16 16 18 22 27 28 28 29 31 32 32 32 33 32 31 31 32 32 32
8 8 7 7 8 10 12 13 10 6 2 2 4 6 5 3 3 5 7 7 2 4 8 7 5 5 6 7 9 9 9 10 11 12 12 13 14 15 15 14 15 17 18 17 18 19 21 25 28 28 27 28 30 31 32 33 32 32 31 32 33 32 30
6 3 2 4 6 7 9 10 9 7 7 7 6 8 9 9 5 4 4 3 5 8 10 7 4 5 6 7 8 8 10 11 12 13 14 14 14 15 15 14 14 18 18 18 20 21 23 28 32 32 31 31 32 33 33 32 32 31 31 32 32 31 28
5 3 5 5 6 8 3 2 5 7 10 11 10 10 10 9 8 5 4 7 10 10 9 7 6 6 3 5 7 8 10 11 12 13 15 15 15 15 14 15 15 16 16 16 19 23 26 31 32 32 32 31 29 29 29 30 31 30 30 30 29 28 27
5 5 5 6 7 6 4 7 4 5 9 12 13 11 11 13 13 13 11 12 13 13 11 10 9 7 4 2 7 10 11 12 12 13 15 15 15 15 13 14 15 14 15 14 15 20 26 28 27 27 28 27 26 27 28 29 29 28 28 28 27 27 27
4 4 4 6 3 4 8 7 8 5 6 7 10 9 12 15 14 13 12 13 14 14 13 11 10 7 6 1 6 11 14 15 15 14 14 15 15 15 12 12 12 12 15 16 17 20 25 27 27 27 28 28 28 27 28 29 28 27 27 26 26 28 29
4 4 5 4 3 2 6 4 7 5 4 3 4 6 8 11 13 13 12 14 15 15 14 14 13 8 6 2 5 12 17 19 19 17 15 15 15 13 11 10 10 10 12 16 18 20 23 26 27 28 28 29 28 27 28 28 28 28 27 26 27 30 31
5 5 5 4 4 3 2 5 8 6 5 4 2 5 5 9 14 14 13 14 17 16 16 18 16 7 2 1 6 13 19 21 20 18 16 15 14 12 9 5 10 13 14 18 20 21 23 24 24 26 28 29 28 27 28 28 28 28 28 28 28 29 30
4 5 5 4 3 1 4 10 11 9 7 6 5 5 4 8 13 13 14 15 16 16 15 17 14 6 2 4 7 13 20 22 19 17 15 15 15 13 11 4 8 15 18 20 22 23 24 24 24 26 28 28 27 26 26 27 28 27 28 29 29 29 30
6 7 6 3 1 1 8 13 13 10 8 7 8 6 3 8 11 11 13 14 15 15 14 13 11 9 6 6 10 16 21 20 17 14 13 14 15 14 12 10 0 13 20 21 23 24 24 25 26 27 28 28 26 24 25 26 27 27 29 30 29 30 30
7 8 5 3 1 2 10 15 14 13 8 7 7 4 2 8 10 9 10 12 13 14 13 10 8 8 7 9 12 17 20 18 14 14 14 15 17 15 14 14 8 7 16 20 23 25 25 26 27 28 28 26 24 23 24 25 27 29 30 29 28 28 28
6 6 5 3 1 3 12 16 14 10 4 5 4 2 3 6 9 9 9 11 11 13 13 10 8 8 10 12 14 16 16 15 13 15 16 16 18 18 16 16 13 5 6 12 16 20 24 27 27 28 28 25 22 23 24 26 29 29 27 27 27 27 26
4 4 3 2 1 4 13 16 10 5 3 3 3 4 4 5 8 9 9 9 10 11 12 12 11 11 12 14 14 14 15 14 14 16 16 15 16 17 17 16 13 9 6 6 8 13 20 25 26 28 28 24 21 23 24 26 27 25 25 28 28 26 26
1 1 1 2 2 6 10 9 5 5 6 5 4 5 5 6 7 8 8 9 10 11 12 13 13 12 13 14 15 15 16 16 17 17 16 16 16 16 17 17 14 10 8 7 8 8 12 16 20 24 25 23 21 21 23 26 27 25 27 31 30 27 27
3 2 4 4 5 7 8 4 2 5 5 4 6 7 6 6 7 7 8 10 12 12 12 13 12 12 13 14 14 14 14 14 15 16 15 16 17 17 18 19 17 13 10 10 10 9 7 8 12 17 19 20 18 16 20 27 29 28 29 31 30 28 26
4 3 6 7 9 9 6 0 4 4 4 5 7 8 7 7 7 7 7 10 12 13 13 12 11 12 15 15 13 14 14 13 15 16 15 16 18 19 19 20 20 15 13 14 14 13 12 9 9 11 14 17 17 16 20 25 27 27 28 28 27 26 24
5 3 7 11 13 9 4 5 5 7 8 7 6 6 6 8 9 9 9 10 11 12 12 12 11 13 15 14 13 12 12 13 14 15 15 16 17 18 17 19 20 17 14 13 14 15 15 13 11 12 14 16 18 18 21 23 24 25 26 25 25 24 24
5 3 7 12 13 7 2 6 7 8 9 10 8 6 6 8 10 10 9 9 10 10 12 12 13 14 14 13 12 11 10 10 12 12 13 15 17 19 20 21 21 19 16 14 14 15 15 13 12 13 14 15 16 17 19 21 22 22 21 20 20 21 22
4 4 8 13 11 6 4 9 10 9 10 12 12 9 9 10 10 10 10 9 9 10 11 12 12 14 14 13 12 12 10 10 10 11 13 15 18 21 22 21 20 20 18 16 15 15 14 13 12 13 14 13 13 14 16 18 20 20 19 17 16 16 16
5 7 10 11 8 6 8 13 15 14 13 13 12 12 11 11 12 11 11 11 10 10 11 11 11 12 13 14 13 12 9 9 11 13 15 17 19 21 22 21 21 21 20 17 15 14 13 13 13 14 15 14 12 11 11 13 15 17 18 16 15 15 13
7 9 11 10 7 6 10 13 15 15 13 13 13 12 10 11 14 13 11 11 12 11 11 12 11 11 13 14 15 12 10 11 13 15 17 17 17 19 20 20 19 20 20 19 17 15 13 12 13 14 15 14 12 9 8 9 10 14 15 14 12 11 10
9 10 11 11 9 9 11 13 15 14 12 12 13 12 10 11 13 13 11 10 11 12 12 12 12 12 12 13 14 13 12 13 15 17 19 18 17 18 19 18 18 19 19 17 16 14 13 11 12 12 12 12 10 9 9 7 6 10 13 11 9 8 7
9 10 11 12 11 11 10 11 12 12 12 13 12 12 12 12 13 14 13 10 10 13 13 12 13 15 13 12 14 14 13 15 18 19 19 19 19 20 21 21 19 18 17 16 14 13 12 11 10 10 10 9 9 9 9 8 5 6 8 7 7 8 8

ECMWFFLT2_925_spd_048.txt.gz
Wind_Speed
10 14 15 17 15 10 9 12 12 12 12 11 9 9 9 8 9 8 8 9 8 6 5 7 10 11 14 18 19 19 19 17 15 13 14 15 15 16 16 16 18 20 21 23 27 28 29 31 32 34 34 34 33 32 31 32 32 32 32 32 30 29 28
10 6 9 15 17 13 9 10 12 11 13 12 9 8 8 9 10 8 9 12 11 8 7 9 15 17 16 16 18 19 20 21 19 16 14 15 16 16 17 18 19 19 20 23 27 29 31 33 35 36 36 34 33 31 31 33 33 33 33 32 30 29 29
8 4 9 13 16 18 15 10 10 12 11 11 10 8 9 11 10 8 10 13 11 9 7 5 11 18 18 17 17 17 19 20 20 19 18 17 16 15 16 17 17 17 19 23 27 30 32 34 34 34 35 33 32 32 31 32 34 34 33 32 30 30 29
7 6 10 11 12 17 18 14 11 11 11 10 10 9 8 9 9 8 10 11 9 9 10 8 8 11 14 15 15 16 18 18 17 18 18 18 18 16 15 15 16 18 20 24 29 32 32 34 33 33 34 34 33 33 32 32 32 32 32 32 32 31 30
7 7 10 13 13 14 15 14 13 11 10 10 11 11 10 9 9 8 7 8 7 5 8 11 9 8 10 12 13 13 15 16 17 17 17 17 17 17 16 15 16 19 20 24 30 32 32 32 32 32 33 34 34 32 32 33 32 33 34 34 33 32 31
8 11 13 14 14 11 10 12 15 15 12 11 12 12 13 11 9 8 7 6 4 3 4 8 9 9 10 11 12 12 13 15 15 16 17 17 16 17 18 17 18 18 19 22 27 29 29 30 30 32 33 33 33 33 33 33 33 33 34 34 33 32 31
10 15 14 12 12 11 9 10 13 16 15 13 13 13 13 12 11 10 9 8 4 3 3 4 5 6 7 9 11 11 12 14 14 15 16 16 16 16 17 18 18 17 17 20 24 27 28 30 31 33 33 33 34 35 34 33 34 35 34 34 34 32 31
11 17 19 16 14 11 10 10 10 13 16 16 12 9 8 10 13 12 8 8 7 3 3 3 3 5 6 6 7 8 9 10 12 15 17 16 16 16 17 17 16 15 16 17 19 21 25 28 30 32 32 33 33 34 33 34 35 36 35 33 33 32 32
9 11 14 14 13 10 9 12 14 13 15 15 10 6 5 7 13 15 11 9 7 4 5 6 6 9 10 8 8 8 8 8 8 9 11 13 15 15 16 16 15 15 16 16 16 17 22 27 29 30 32 32 32 33 34 34 34 35 34 33 33 33 32
9 8 6 7 8 6 8 15 18 14 13 14 11 7 8 9 12 14 12 9 7 5 6 7 7 9 11 8 6 5 4 4 3 0 1 4 7 9 11 12 13 13 14 15 16 17 22 27 29 29 31 31 31 32 34 34 33 33 34 33 33 33 32
11 8 6 7 8 7 8 12 14 12 12 13 11 9 10 11 10 12 12 10 9 7 6 6 7 6 4 1 3 4 4 4 3 3 3 1 3 5 8 9 10 11 12 14 17 18 22 27 29 30 31 32 31 32 33 33 32 33 33 33 33 33 32
18 18 16 14 13 13 12 11 11 10 9 10 13 13 14 13 9 11 14 13 13 12 6 1 0 2 5 6 6 6 6 6 5 4 1 2 4 6 8 9 11 13 14 15 17 18 21 25 27 28 30 31 31 31 32 32 32 32 33 33 33 33 32
20 22 21 17 14 14 15 14 14 13 9 10 14 15 18 17 12 11 12 10 13 15 7 5 7 8 8 7 6 6 6 7 7 6 4 2 2 4 7 10 13 14 15 16 17 18 20 24 27 27 27 28 29 29 30 31 32 32 32 33 33 32 31
18 21 22 20 17 17 17 16 16 16 13 13 13 13 16 19 16 14 11 9 9 6 3 8 9 9 9 7 7 8 9 10 10 9 9 8 6 4 3 6 11 15 16 16 18 19 19 23 26 27 26 27 29 30 31 32 32 32 32 32 33 32 32
14 17 20 20 19 18 18 17 17 17 15 15 15 14 15 17 18 17 15 15 10 2 9 10 9 9 9 9 10 10 10 12 13 12 12 11 11 10 9 7 6 11 15 17 18 18 20 23 27 28 27 28 30 30 31 32 33 33 33 33 33 33 32
10 13 17 20 19 18 19 19 18 17 16 14 10 8 9 11 14 16 15 15 11 4 11 10 8 7 8 10 11 11 11 13 14 14 14 14 13 13 11 10 10 9 12 16 18 20 22 26 29 29 28 29 29 30 31 32 33 33 33 33 33 32 30
9 11 15 16 15 15 16 15 15 16 16 10 5 4 4 4 6 10 11 8 4 8 10 9 8 8 8 8 9 10 11 13 13 14 15 15 15 15 14 13 12 13 12 13 17 21 23 27 31 32 32 31 31 32 32 32 32 33 32 32 31 30 29
8 11 13 11 12 13 10 8 11 18 18 11 9 8 7 3 1 3 3 2 7 10 9 9 9 9 9 7 6 8 9 11 12 14 15 16 16 16 16 15 14 13 13 13 16 21 25 29 32 33 33 31 30 30 30 30 31 31 31 30 30 30 30
7 10 10 9 11 10 4 2 3 11 14 12 12 8 4 2 1 2 2 3 7 9 10 10 9 9 10 7 3 8 10 11 12 14 15 16 17 17 17 16 16 15 15 15 16 20 26 28 29 30 30 29 28 28 29 30 31 30 30 29 28 29 30
6 7 8 8 5 3 0 5 9 5 6 13 12 7 5 3 2 1 2 4 7 10 11 11 10 10 10 6 4 11 14 14 14 15 15 17 17 17 17 17 17 17 17 18 18 20 24 25 27 29 30 30 29 29 29 30 30 30 29 28 28 28 30
6 7 8 8 7 6 3 3 8 8 2 2 2 2 4 3 4 3 3 5 8 11 12 12 12 11 9 9 3 12 18 17 17 17 17 18 19 18 19 19 19 20 19 20 19 20 22 24 27 28 29 29 29 28 28 28 29 30 29 28 28 29 30
6 7 7 8 10 8 4 2 7 11 9 10 11 5 3 3 5 5 4 6 9 11 12 14 14 9 9 10 2 12 20 20 20 21 20 20 19 19 19 19 19 19 17 16 18 19 22 25 27 27 28 28 28 27 28 28 28 29 29 29 29 29 29
6 7 6 6 8 4 3 7 10 12 12 13 12 7 4 2 4 5 6 7 9 10 11 13 12 5 7 5 4 13 20 20 20 20 21 21 21 21 21 18 17 18 15 14 16 18 21 24 26 27 28 29 28 27 27 28 28 28 29 29 30 29 29
8 8 6 6 6 1 8 11 12 13 13 11 7 6 5 3 4 5 7 8 8 10 10 10 9 5 2 4 8 14 18 19 19 19 19 20 21 20 20 19 17 17 14 11 14 17 21 24 26 28 29 28 27 27 27 27 27 28 29 29 29 28 27
9 9 7 7 6 2 10 13 12 10 9 6 4 3 1 4 4 5 7 8 8 9 9 7 6 6 7 8 11 15 18 18 19 20 20 23 22 19 20 20 16 13 10 11 15 17 20 24 25 27 29 27 26 27 27 27 28 28 28 27 27 25 26
7 8 7 7 5 3 12 15 10 6 4 3 0 2 3 3 5 5 6 7 8 8 8 7 6 8 10 11 13 15 17 17 18 19 20 22 21 19 20 18 14 10 7 9 14 16 19 24 26 27 28 26 26 26 27 27 28 27 25 25 25 25 26
6 7 6 6 4 5 13 14 7 6 4 3 4 5 3 3 5 6 5 6 7 8 8 8 9 11 12 13 14 15 16 17 17 18 18 18 18 18 18 17 14 9 5 5 10 15 19 22 24 25 26 25 24 26 26 26 25 24 23 24 25 25 25
3 5 4 3 4 7 12 9 4 4 4 4 6 7 5 4 5 6 5 6 7 8 9 10 11 11 12 13 15 15 16 17 17 17 18 17 17 19 18 18 18 12 4 3 5 10 17 19 20 22 23 23 22 23 23 22 22 22 22 23 24 23 24
2 2 2 5 6 8 8 5 3 4 5 7 9 10 8 6 6 6 6 7 8 8 9 10 10 10 11 14 16 15 15 17 17 18 19 18 18 20 20 20 22 15 2 3 2 4 11 15 17 18 20 20 19 18 19 20 22 22 21 22 23 22 23
4 3 2 7 10 9 6 5 6 7 8 9 10 10 9 8 7 7 7 8 9 9 9 10 10 10 12 14 15 15 15 16 17 18 19 19 20 22 22 21 23 18 6 3 4 3 5 9 11 13 15 16 16 15 16 19 20 20 20 21 21 21 21
5 2 3 10 15 11 4 4 8 9 9 8 9 9 10 10 10 10 9 8 9 9 9 10 11 11 13 14 14 15 14 15 17 18 18 19 21 22 21 21 21 19 12 4 4 5 5 6 7 8 10 12 14 14 16 17 18 18 18 19 19 19 20
6 3 7 14 15 7 1 5 9 10 10 10 10 10 11 11 12 11 9 8 9 9 9 9 11 12 13 12 13 14 13 13 14 16 17 19 21 23 24 24 21 18 15 11 8 6 7 6 6 7 8 9 11 12 13 15 16 16 16 16 17 17 18
5 4 9 15 12 4 4 9 12 11 11 12 12 12 13 13 12 11 10 9 8 9 9 9 10 12 12 12 13 14 13 13 13 14 17 20 21 22 24 24 21 17 17 16 14 11 10 9 8 8 9 9 8 8 9 11 13 14 14 14 14 15 16
6 7 11 13 10 6 8 13 13 12 13 13 13 14 13 13 13 12 12 11 9 9 9 9 10 11 11 12 14 14 12 12 14 16 18 21 21 23 24 24 22 20 20 20 18 16 15 14 13 13 12 10 8 6 6 8 11 12 13 13 14 14 15
8 10 11 11 9 8 10 13 13 13 13 13 14 14 14 14 14 13 13 13 11 10 9 10 10 10 10 11 14 14 13 14 17 19 20 20 20 22 23 22 21 22 22 22 21 19 18 17 17 16 15 13 10 8 5 5 8 11 13 13 13 13 14
9 11 12 11 10 10 11 12 13 12 11 12 14 14 14 14 14 13 12 12 12 11 10 11 11 12 11 11 12 13 14 16 18 21 22 21 20 21 21 20 20 21 21 21 20 19 18 18 17 17 17 16 14 11 8 5 5 8 11 11 11 12 12
9 10 11 11 11 11 10 10 11 11 12 13 14 13 14 14 14 13 13 11 10 10 10 10 12 13 12 11 12 13 14 16 19 21 21 19 19 20 20 21 22 21 19 17 19 19 18 18 18 18 18 19 17 14 11 7 5 4 5 7 7 8 9